Observation data for Roaring Springs on 03/06/2021      Previous  Date  Next       Current Mesonet Observations  Soil Data  Daily Summary Page  Observations in Plain Language
KRRS 060600Z 34005KT 06/04 A3032 RMK A01 T00550036  RH  087%=      5-min Rain = 0
KRRS 060601Z 34005KT 06/04 A3032 RMK A01 T00550036  RH  088%=      5-min Rain = 0
KRRS 060602Z 34005KT 06/04 A3032 RMK A01 T00550035  RH  087%=      5-min Rain = 0
KRRS 060603Z 35005KT 05/04 A3032 RMK A01 T00540035  RH  087%=      5-min Rain = 0
KRRS 060604Z 34005KT 05/04 A3032 RMK A01 T00540035  RH  088%=      5-min Rain = 0
KRRS 060605Z 35005KT 05/04 A3032 RMK A01 T00540036  RH  088%=      5-min Rain = 0
KRRS 060606Z 34005KT 05/04 A3032 RMK A01 T00540035  RH  088%=      5-min Rain = 0
KRRS 060607Z 34005KT 05/04 A3032 RMK A01 T00540036  RH  088%=      5-min Rain = 0
KRRS 060608Z 34005KT 05/04 A3032 RMK A01 T00540036  RH  088%=      5-min Rain = 0
KRRS 060609Z 34005KT 05/04 A3032 RMK A01 T00530036  RH  088%=      5-min Rain = 0
KRRS 060610Z 34005KT 05/04 A3032 RMK A01 T00530036  RH  088%=      5-min Rain = 0
KRRS 060611Z 34005KT 05/04 A3032 RMK A01 T00530036  RH  089%=      5-min Rain = 0
KRRS 060612Z 33005KT 05/04 A3032 RMK A01 T00530036  RH  089%=      5-min Rain = 0
KRRS 060613Z 33005KT 05/04 A3032 RMK A01 T00530036  RH  089%=      5-min Rain = 0
KRRS 060614Z 32005KT 05/04 A3032 RMK A01 T00530036  RH  089%=      5-min Rain = 0
KRRS 060615Z 33005KT 05/04 A3032 RMK A01 T00530036  RH  089%=      5-min Rain = 0
KRRS 060616Z 32005KT 05/04 A3032 RMK A01 T00530035  RH  089%=      5-min Rain = 0
KRRS 060617Z 32004KT 05/04 A3032 RMK A01 T00520035  RH  089%=      5-min Rain = 0
KRRS 060618Z 32005KT 05/04 A3032 RMK A01 T00520035  RH  089%=      5-min Rain = 0
KRRS 060619Z 31005KT 05/04 A3032 RMK A01 T00520035  RH  089%=      5-min Rain = 0
KRRS 060620Z 31005KT 05/04 A3032 RMK A01 T00510035  RH  089%=      5-min Rain = 0
KRRS 060621Z 32005KT 05/04 A3032 RMK A01 T00510035  RH  089%=      5-min Rain = 0
KRRS 060622Z 32005KT 05/03 A3032 RMK A01 T00510034  RH  089%=      5-min Rain = 0
KRRS 060623Z 32004KT 05/03 A3032 RMK A01 T00500034  RH  089%=      5-min Rain = 0
KRRS 060624Z 32004KT 05/03 A3032 RMK A01 T00500034  RH  090%=      5-min Rain = 0
KRRS 060625Z 32004KT 05/04 A3032 RMK A01 T00500035  RH  090%=      5-min Rain = 0
KRRS 060626Z 32004KT 05/03 A3032 RMK A01 T00500034  RH  089%=      5-min Rain = 0
KRRS 060627Z 32004KT 05/03 A3032 RMK A01 T00500034  RH  090%=      5-min Rain = 0
KRRS 060628Z 32005KT 05/04 A3032 RMK A01 T00500035  RH  090%=      5-min Rain = 0
KRRS 060629Z 32005KT 05/04 A3032 RMK A01 T00500035  RH  090%=      5-min Rain = 0
KRRS 060630Z 32005KT 05/04 A3032 RMK A01 T00500035  RH  090%=      5-min Rain = 0
KRRS 060631Z 32005KT 05/03 A3032 RMK A01 T00500034  RH  090%=      5-min Rain = 0
KRRS 060632Z 32005KT 05/03 A3032 RMK A01 T00490034  RH  090%=      5-min Rain = 0
KRRS 060633Z 32006KT 05/03 A3032 RMK A01 T00490034  RH  090%=      5-min Rain = 0
KRRS 060634Z 32006KT 05/03 A3032 RMK A01 T00490033  RH  090%=      5-min Rain = 0
KRRS 060635Z 32006KT 05/03 A3032 RMK A01 T00480033  RH  090%=      5-min Rain = 0
KRRS 060636Z 32006KT 05/03 A3032 RMK A01 T00480033  RH  090%=      5-min Rain = 0
KRRS 060637Z 32006KT 05/03 A3032 RMK A01 T00470033  RH  090%=      5-min Rain = 0
KRRS 060638Z 33006KT 05/03 A3032 RMK A01 T00470033  RH  090%=      5-min Rain = 0
KRRS 060639Z 32005KT 05/03 A3032 RMK A01 T00470033  RH  091%=      5-min Rain = 0
KRRS 060640Z 32005KT 05/03 A3032 RMK A01 T00470033  RH  091%=      5-min Rain = 0
KRRS 060641Z 32005KT 05/03 A3032 RMK A01 T00470033  RH  091%=      5-min Rain = 0
KRRS 060642Z 32005KT 05/03 A3032 RMK A01 T00470033  RH  091%=      5-min Rain = 0
KRRS 060643Z 32005KT 05/03 A3032 RMK A01 T00470034  RH  091%=      5-min Rain = 0
KRRS 060644Z 32005KT 05/03 A3032 RMK A01 T00480034  RH  091%=      5-min Rain = 0
KRRS 060645Z 32005KT 05/03 A3032 RMK A01 T00480034  RH  091%=      5-min Rain = 0
KRRS 060646Z 32005KT 05/03 A3032 RMK A01 T00480033  RH  090%=      5-min Rain = 0
KRRS 060647Z 32006KT 05/03 A3032 RMK A01 T00480033  RH  090%=      5-min Rain = 0
KRRS 060648Z 32006KT 05/03 A3032 RMK A01 T00480033  RH  090%=      5-min Rain = 0
KRRS 060649Z 32006KT 05/03 A3032 RMK A01 T00470033  RH  090%=      5-min Rain = 0
KRRS 060650Z 32006KT 05/03 A3032 RMK A01 T00470033  RH  090%=      5-min Rain = 0
KRRS 060651Z 32006KT 05/03 A3032 RMK A01 T00470033  RH  090%=      5-min Rain = 0
KRRS 060652Z 32006KT 05/03 A3032 RMK A01 T00470032  RH  090%=      5-min Rain = 0
KRRS 060653Z 32006KT 05/03 A3032 RMK A01 T00460032  RH  090%=      5-min Rain = 0
KRRS 060654Z 32006KT 05/03 A3032 RMK A01 T00460032  RH  091%=      5-min Rain = 0
KRRS 060655Z 32006KT 05/03 A3032 RMK A01 T00460033  RH  091%=      5-min Rain = 0
KRRS 060656Z 32006KT 05/03 A3032 RMK A01 T00460032  RH  091%=      5-min Rain = 0
KRRS 060657Z 32006KT 05/03 A3032 RMK A01 T00460033  RH  091%=      5-min Rain = 0
KRRS 060658Z 32006KT 05/03 A3032 RMK A01 T00460033  RH  091%=      5-min Rain = 0
KRRS 060659Z 32006KT 05/03 A3032 RMK A01 T00460033  RH  091%=      5-min Rain = 0
KRRS 060700Z 32005KT 05/03 A3032 RMK A01 T00460033  RH  091%=      5-min Rain = 0
KRRS 060701Z 31005KT 05/03 A3032 RMK A01 T00460032  RH  091%=      5-min Rain = 0
KRRS 060702Z 31005KT 05/03 A3032 RMK A01 T00460033  RH  091%=      5-min Rain = 0
KRRS 060703Z 31005KT 05/03 A3032 RMK A01 T00470034  RH  091%=      5-min Rain = 0
KRRS 060704Z 32006KT 05/03 A3032 RMK A01 T00470033  RH  091%=      5-min Rain = 0
KRRS 060705Z 32006KT 05/03 A3032 RMK A01 T00470034  RH  091%=      5-min Rain = 0
KRRS 060706Z 32006KT 05/03 A3032 RMK A01 T00480034  RH  091%=      5-min Rain = 0
KRRS 060707Z 32006KT 05/04 A3032 RMK A01 T00490035  RH  090%=      5-min Rain = 0
KRRS 060708Z 32006KT 05/04 A3032 RMK A01 T00500035  RH  090%=      5-min Rain = 0
KRRS 060709Z 31006KT 05/03 A3032 RMK A01 T00510034  RH  089%=      5-min Rain = 0
KRRS 060710Z 32006KT 05/03 A3032 RMK A01 T00510033  RH  088%=      5-min Rain = 0
KRRS 060711Z 32006KT 05/03 A3032 RMK A01 T00500032  RH  088%=      5-min Rain = 0
KRRS 060712Z 32006KT 05/03 A3032 RMK A01 T00500032  RH  088%=      5-min Rain = 0
KRRS 060713Z 32007KT 05/03 A3032 RMK A01 T00500033  RH  089%=      5-min Rain = 0
KRRS 060714Z 32007KT 05/03 A3032 RMK A01 T00500033  RH  089%=      5-min Rain = 0
KRRS 060715Z 32007KT 05/03 A3032 RMK A01 T00500032  RH  089%=      5-min Rain = 0
KRRS 060716Z 32007KT 05/03 A3032 RMK A01 T00490031  RH  088%=      5-min Rain = 0
KRRS 060717Z 32007KT 05/03 A3032 RMK A01 T00480030  RH  088%=      5-min Rain = 0
KRRS 060718Z 32007KT 05/03 A3032 RMK A01 T00470030  RH  089%=      5-min Rain = 0
KRRS 060719Z 32007KT 05/03 A3032 RMK A01 T00470030  RH  089%=      5-min Rain = 0
KRRS 060720Z 31007KT 05/03 A3032 RMK A01 T00460030  RH  089%=      5-min Rain = 0
KRRS 060721Z 31007KT 05/03 A3032 RMK A01 T00460030  RH  089%=      5-min Rain = 0
KRRS 060722Z 31007KT 05/03 A3032 RMK A01 T00460030  RH  090%=      5-min Rain = 0
KRRS 060723Z 31007KT 05/03 A3032 RMK A01 T00460030  RH  090%=      5-min Rain = 0
KRRS 060724Z 32006KT 05/03 A3032 RMK A01 T00460030  RH  090%=      5-min Rain = 0
KRRS 060725Z 31006KT 05/03 A3032 RMK A01 T00460030  RH  090%=      5-min Rain = 0
KRRS 060726Z 32006KT 05/03 A3032 RMK A01 T00460030  RH  090%=      5-min Rain = 0
KRRS 060727Z 31006KT 05/03 A3032 RMK A01 T00460030  RH  090%=      5-min Rain = 0
KRRS 060728Z 31006KT 05/03 A3032 RMK A01 T00460031  RH  090%=      5-min Rain = 0
KRRS 060729Z 31006KT 05/03 A3032 RMK A01 T00470030  RH  089%=      5-min Rain = 0
KRRS 060730Z 31005KT 05/03 A3032 RMK A01 T00470031  RH  089%=      5-min Rain = 0
KRRS 060731Z 31005KT 05/03 A3032 RMK A01 T00470032  RH  090%=      5-min Rain = 0
KRRS 060732Z 31005KT 05/03 A3032 RMK A01 T00480032  RH  090%=      5-min Rain = 0
KRRS 060733Z 30005KT 05/03 A3032 RMK A01 T00480032  RH  089%=      5-min Rain = 0
KRRS 060734Z 31005KT 05/03 A3032 RMK A01 T00480032  RH  089%=      5-min Rain = 0
KRRS 060735Z 31005KT 05/03 A3032 RMK A01 T00490032  RH  089%=      5-min Rain = 0
KRRS 060736Z 31005KT 05/03 A3032 RMK A01 T00490032  RH  089%=      5-min Rain = 0
KRRS 060737Z 31005KT 05/03 A3032 RMK A01 T00490032  RH  089%=      5-min Rain = 0
KRRS 060738Z 32006KT 05/03 A3032 RMK A01 T00490032  RH  088%=      5-min Rain = 0
KRRS 060739Z 32006KT 05/03 A3032 RMK A01 T00490032  RH  088%=      5-min Rain = 0
KRRS 060740Z 32006KT 05/03 A3032 RMK A01 T00490031  RH  088%=      5-min Rain = 0
KRRS 060741Z 32006KT 05/03 A3032 RMK A01 T00480031  RH  089%=      5-min Rain = 0
KRRS 060742Z 32006KT 05/03 A3032 RMK A01 T00480031  RH  089%=      5-min Rain = 0
KRRS 060743Z 31006KT 05/03 A3032 RMK A01 T00480031  RH  089%=      5-min Rain = 0
KRRS 060744Z 32006KT 05/03 A3032 RMK A01 T00480031  RH  089%=      5-min Rain = 0
KRRS 060745Z 32006KT 05/03 A3032 RMK A01 T00480031  RH  089%=      5-min Rain = 0
KRRS 060746Z 31005KT 05/03 A3032 RMK A01 T00480031  RH  089%=      5-min Rain = 0
KRRS 060747Z 31005KT 05/03 A3032 RMK A01 T00470031  RH  089%=      5-min Rain = 0
KRRS 060748Z 32005KT 05/03 A3032 RMK A01 T00480032  RH  090%=      5-min Rain = 0
KRRS 060749Z 32005KT 05/03 A3032 RMK A01 T00480033  RH  090%=      5-min Rain = 0
KRRS 060750Z 31005KT 05/03 A3032 RMK A01 T00490033  RH  089%=      5-min Rain = 0
KRRS 060751Z 32005KT 05/03 A3032 RMK A01 T00490033  RH  089%=      5-min Rain = 0
KRRS 060752Z 32005KT 05/03 A3032 RMK A01 T00490032  RH  089%=      5-min Rain = 0
KRRS 060753Z 32005KT 05/03 A3032 RMK A01 T00490032  RH  089%=      5-min Rain = 0
KRRS 060754Z 32005KT 05/03 A3032 RMK A01 T00490033  RH  089%=      5-min Rain = 0
KRRS 060755Z 32005KT 05/03 A3032 RMK A01 T00490033  RH  089%=      5-min Rain = 0
KRRS 060756Z 32005KT 05/03 A3032 RMK A01 T00500034  RH  089%=      5-min Rain = 0
KRRS 060757Z 32005KT 05/03 A3032 RMK A01 T00500034  RH  089%=      5-min Rain = 0
KRRS 060758Z 32005KT 05/03 A3032 RMK A01 T00510034  RH  089%=      5-min Rain = 0
KRRS 060759Z 32005KT 05/03 A3032 RMK A01 T00510033  RH  088%=      5-min Rain = 0
KRRS 060800Z 32005KT 05/03 A3032 RMK A01 T00500032  RH  088%=      5-min Rain = 0
KRRS 060801Z 32006KT 05/03 A3032 RMK A01 T00490032  RH  088%=      5-min Rain = 0
KRRS 060802Z 32005KT 05/03 A3032 RMK A01 T00490032  RH  089%=      5-min Rain = 0
KRRS 060803Z 32006KT 05/03 A3032 RMK A01 T00490032  RH  089%=      5-min Rain = 0
KRRS 060804Z 32006KT 05/03 A3032 RMK A01 T00490031  RH  089%=      5-min Rain = 0
KRRS 060805Z 32006KT 05/03 A3032 RMK A01 T00490031  RH  088%=      5-min Rain = 0
KRRS 060806Z 32006KT 05/03 A3032 RMK A01 T00490031  RH  089%=      5-min Rain = 0
KRRS 060807Z 32006KT 05/03 A3032 RMK A01 T00490031  RH  088%=      5-min Rain = 0
KRRS 060808Z 32006KT 05/03 A3032 RMK A01 T00480031  RH  088%=      5-min Rain = 0
KRRS 060809Z 32006KT 05/03 A3032 RMK A01 T00480031  RH  089%=      5-min Rain = 0
KRRS 060810Z 32005KT 05/03 A3032 RMK A01 T00480031  RH  089%=      5-min Rain = 0
KRRS 060811Z 32006KT 05/03 A3032 RMK A01 T00480031  RH  089%=      5-min Rain = 0
KRRS 060812Z 32005KT 05/03 A3032 RMK A01 T00480031  RH  089%=      5-min Rain = 0
KRRS 060813Z 32005KT 05/03 A3032 RMK A01 T00480031  RH  089%=      5-min Rain = 0
KRRS 060814Z 32006KT 05/03 A3032 RMK A01 T00480031  RH  089%=      5-min Rain = 0
KRRS 060815Z 32006KT 05/03 A3032 RMK A01 T00480032  RH  089%=      5-min Rain = 0
KRRS 060816Z 32006KT 05/03 A3032 RMK A01 T00480032  RH  089%=      5-min Rain = 0
KRRS 060817Z 32006KT 05/03 A3032 RMK A01 T00480031  RH  089%=      5-min Rain = 0
KRRS 060818Z 32006KT 05/03 A3032 RMK A01 T00480031  RH  089%=      5-min Rain = 0
KRRS 060819Z 32006KT 05/03 A3032 RMK A01 T00480031  RH  089%=      5-min Rain = 0
KRRS 060820Z 32006KT 05/03 A3032 RMK A01 T00480031  RH  089%=      5-min Rain = 0
KRRS 060821Z 33006KT 05/03 A3032 RMK A01 T00480031  RH  089%=      5-min Rain = 0
KRRS 060822Z 33006KT 05/03 A3032 RMK A01 T00480031  RH  089%=      5-min Rain = 0
KRRS 060823Z 33005KT 05/03 A3032 RMK A01 T00480031  RH  089%=      5-min Rain = 0
KRRS 060824Z 33005KT 05/03 A3032 RMK A01 T00480031  RH  089%=      5-min Rain = 0
KRRS 060825Z 33005KT 05/03 A3032 RMK A01 T00480032  RH  089%=      5-min Rain = 0
KRRS 060826Z 33005KT 05/03 A3032 RMK A01 T00480032  RH  089%=      5-min Rain = 0
KRRS 060827Z 32005KT 05/03 A3032 RMK A01 T00480031  RH  089%=      5-min Rain = 0
KRRS 060828Z 32005KT 05/03 A3032 RMK A01 T00480031  RH  089%=      5-min Rain = 0
KRRS 060829Z 32005KT 05/03 A3032 RMK A01 T00480031  RH  089%=      5-min Rain = 0
KRRS 060830Z 32005KT 05/03 A3032 RMK A01 T00480031  RH  089%=      5-min Rain = 0
KRRS 060831Z 32004KT 05/03 A3032 RMK A01 T00490031  RH  088%=      5-min Rain = 0
KRRS 060832Z 33004KT 05/03 A3032 RMK A01 T00490031  RH  088%=      5-min Rain = 0
KRRS 060833Z 33004KT 05/03 A3032 RMK A01 T00490031  RH  088%=      5-min Rain = 0
KRRS 060834Z 33004KT 05/03 A3032 RMK A01 T00490032  RH  088%=      5-min Rain = 0
KRRS 060835Z 33005KT 05/03 A3032 RMK A01 T00490031  RH  088%=      5-min Rain = 0
KRRS 060836Z 33005KT 05/03 A3032 RMK A01 T00490031  RH  088%=      5-min Rain = 0
KRRS 060837Z 33005KT 05/03 A3032 RMK A01 T00490031  RH  088%=      5-min Rain = 0
KRRS 060838Z 33005KT 05/03 A3032 RMK A01 T00490031  RH  088%=      5-min Rain = 0
KRRS 060839Z 33005KT 05/03 A3032 RMK A01 T00490031  RH  088%=      5-min Rain = 0
KRRS 060840Z 33005KT 05/03 A3031 RMK A01 T00480030  RH  088%=      5-min Rain = 0
KRRS 060841Z 33005KT 05/03 A3031 RMK A01 T00480030  RH  088%=      5-min Rain = 0
KRRS 060842Z 33005KT 05/03 A3031 RMK A01 T00470029  RH  088%=      5-min Rain = 0
KRRS 060843Z 33005KT 05/03 A3031 RMK A01 T00470029  RH  088%=      5-min Rain = 0
KRRS 060844Z 33005KT 05/03 A3031 RMK A01 T00460029  RH  089%=      5-min Rain = 0
KRRS 060845Z 33005KT 05/03 A3031 RMK A01 T00460030  RH  089%=      5-min Rain = 0
KRRS 060846Z 33005KT 05/03 A3031 RMK A01 T00460029  RH  089%=      5-min Rain = 0
KRRS 060847Z 33005KT 05/03 A3031 RMK A01 T00460029  RH  089%=      5-min Rain = 0
KRRS 060848Z 33005KT 05/03 A3031 RMK A01 T00460030  RH  089%=      5-min Rain = 0
KRRS 060849Z 33005KT 05/03 A3031 RMK A01 T00470030  RH  089%=      5-min Rain = 0
KRRS 060850Z 33004KT 05/03 A3031 RMK A01 T00470030  RH  089%=      5-min Rain = 0
KRRS 060851Z 32004KT 05/03 A3031 RMK A01 T00470029  RH  088%=      5-min Rain = 0
KRRS 060852Z 32005KT 05/03 A3031 RMK A01 T00470029  RH  088%=      5-min Rain = 0
KRRS 060853Z 32004KT 05/03 A3031 RMK A01 T00460028  RH  088%=      5-min Rain = 0
KRRS 060854Z 33005KT 05/03 A3031 RMK A01 T00460029  RH  089%=      5-min Rain = 0
KRRS 060855Z 32005KT 05/03 A3031 RMK A01 T00460029  RH  089%=      5-min Rain = 0
KRRS 060856Z 32005KT 05/03 A3031 RMK A01 T00460029  RH  089%=      5-min Rain = 0
KRRS 060857Z 32004KT 05/03 A3031 RMK A01 T00470029  RH  088%=      5-min Rain = 0
KRRS 060858Z 33005KT 05/03 A3031 RMK A01 T00460029  RH  088%=      5-min Rain = 0
KRRS 060859Z 32005KT 05/03 A3031 RMK A01 T00460029  RH  089%=      5-min Rain = 0
KRRS 060900Z 33005KT 05/03 A3031 RMK A01 T00460029  RH  089%=      5-min Rain = 0
KRRS 060901Z 33005KT 05/03 A3031 RMK A01 T00460029  RH  089%=      5-min Rain = 0
KRRS 060902Z 33005KT 05/03 A3031 RMK A01 T00450028  RH  089%=      5-min Rain = 0
KRRS 060903Z 33005KT 05/03 A3031 RMK A01 T00450028  RH  089%=      5-min Rain = 0
KRRS 060904Z 33005KT 05/03 A3031 RMK A01 T00450028  RH  089%=      5-min Rain = 0
KRRS 060905Z 32005KT 05/03 A3031 RMK A01 T00450028  RH  089%=      5-min Rain = 0
KRRS 060906Z 32005KT 05/03 A3031 RMK A01 T00450028  RH  089%=      5-min Rain = 0
KRRS 060907Z 32005KT 05/03 A3031 RMK A01 T00450029  RH  089%=      5-min Rain = 0
KRRS 060908Z 31005KT 05/03 A3031 RMK A01 T00450028  RH  089%=      5-min Rain = 0
KRRS 060909Z 31005KT 05/03 A3031 RMK A01 T00450028  RH  088%=      5-min Rain = 0
KRRS 060910Z 31005KT 04/03 A3031 RMK A01 T00440025  RH  088%=      5-min Rain = 0
KRRS 060911Z 32005KT 04/02 A3031 RMK A01 T00420024  RH  088%=      5-min Rain = 0
KRRS 060912Z 32005KT 04/02 A3031 RMK A01 T00400023  RH  089%=      5-min Rain = 0
KRRS 060913Z 32005KT 04/02 A3031 RMK A01 T00390024  RH  090%=      5-min Rain = 0
KRRS 060914Z 31005KT 04/03 A3031 RMK A01 T00390025  RH  090%=      5-min Rain = 0
KRRS 060915Z 32005KT 04/03 A3031 RMK A01 T00390025  RH  090%=      5-min Rain = 0
KRRS 060916Z 32005KT 04/03 A3031 RMK A01 T00390025  RH  090%=      5-min Rain = 0
KRRS 060917Z 32005KT 04/02 A3031 RMK A01 T00390024  RH  090%=      5-min Rain = 0
KRRS 060918Z 32005KT 04/03 A3031 RMK A01 T00390025  RH  091%=      5-min Rain = 0
KRRS 060919Z 32005KT 04/03 A3031 RMK A01 T00400026  RH  091%=      5-min Rain = 0
KRRS 060920Z 32006KT 04/03 A3031 RMK A01 T00410028  RH  091%=      5-min Rain = 0
KRRS 060921Z 32006KT 04/03 A3031 RMK A01 T00420028  RH  091%=      5-min Rain = 0
KRRS 060922Z 32006KT 04/03 A3031 RMK A01 T00430029  RH  090%=      5-min Rain = 0
KRRS 060923Z 32006KT 04/03 A3031 RMK A01 T00440029  RH  090%=      5-min Rain = 0
KRRS 060924Z 32006KT 04/03 A3031 RMK A01 T00440029  RH  090%=      5-min Rain = 0
KRRS 060925Z 32006KT 05/03 A3031 RMK A01 T00450029  RH  090%=      5-min Rain = 0
KRRS 060926Z 32006KT 05/03 A3031 RMK A01 T00460030  RH  090%=      5-min Rain = 0
KRRS 060927Z 31006KT 05/03 A3031 RMK A01 T00460029  RH  089%=      5-min Rain = 0
KRRS 060928Z 30006KT 05/03 A303 RMK A01 T00450028  RH  088%=      5-min Rain = 0
KRRS 060929Z 29005KT 04/03 A303 RMK A01 T00440026  RH  088%=      5-min Rain = 0
KRRS 060930Z 29005KT 04/02 A3031 RMK A01 T00420024  RH  088%=      5-min Rain = 0
KRRS 060931Z 29006KT 04/02 A3031 RMK A01 T00390020  RH  088%=      5-min Rain = 0
KRRS 060932Z 29005KT 04/02 A3031 RMK A01 T00350017  RH  088%=      5-min Rain = 0
KRRS 060933Z 29005KT 03/02 A3031 RMK A01 T00320015  RH  089%=      5-min Rain = 0
KRRS 060934Z 29005KT 03/01 A3031 RMK A01 T00290013  RH  089%=      5-min Rain = 0
KRRS 060935Z 28006KT 03/01 A3031 RMK A01 T00260010  RH  089%=      5-min Rain = 0
KRRS 060936Z 28006KT 02/01 A3031 RMK A01 T00230008  RH  090%=      5-min Rain = 0
KRRS 060937Z 28006KT 02/01 A3031 RMK A01 T00200007  RH  091%=      5-min Rain = 0
KRRS 060938Z 28005KT 02/01 A3031 RMK A01 T00180006  RH  092%=      5-min Rain = 0
KRRS 060939Z 27005KT 02/01 A3031 RMK A01 T00170006  RH  092%=      5-min Rain = 0
KRRS 060940Z 27005KT 02/01 A3031 RMK A01 T00160006  RH  093%=      5-min Rain = 0
KRRS 060941Z 27005KT 02/01 A3031 RMK A01 T00150006  RH  094%=      5-min Rain = 0
KRRS 060942Z 27005KT 01/01 A3031 RMK A01 T00140006  RH  094%=      5-min Rain = 0
KRRS 060943Z 27005KT 01/01 A3031 RMK A01 T00130005  RH  094%=      5-min Rain = 0
KRRS 060944Z 28006KT 01/01 A3031 RMK A01 T00130006  RH  095%=      5-min Rain = 0
KRRS 060945Z 28006KT 01/01 A3031 RMK A01 T00130006  RH  095%=      5-min Rain = 0
KRRS 060946Z 28006KT 01/01 A3031 RMK A01 T00130006  RH  095%=      5-min Rain = 0
KRRS 060947Z 27006KT 01/01 A3031 RMK A01 T00130007  RH  096%=      5-min Rain = 0
KRRS 060948Z 28006KT 01/01 A3031 RMK A01 T00130007  RH  096%=      5-min Rain = 0
KRRS 060949Z 28006KT 01/01 A3031 RMK A01 T00140007  RH  096%=      5-min Rain = 0
KRRS 060950Z 28006KT 01/01 A3031 RMK A01 T00140008  RH  096%=      5-min Rain = 0
KRRS 060951Z 28006KT 02/01 A3031 RMK A01 T00150010  RH  096%=      5-min Rain = 0
KRRS 060952Z 28006KT 02/01 A3031 RMK A01 T00160010  RH  096%=      5-min Rain = 0
KRRS 060953Z 28006KT 02/01 A3031 RMK A01 T00160009  RH  096%=      5-min Rain = 0
KRRS 060954Z 27006KT 02/01 A3031 RMK A01 T00160009  RH  096%=      5-min Rain = 0
KRRS 060955Z 28006KT 02/01 A3031 RMK A01 T00160009  RH  095%=      5-min Rain = 0
KRRS 060956Z 27006KT 02/01 A3031 RMK A01 T00150008  RH  095%=      5-min Rain = 0
KRRS 060957Z 27006KT 02/01 A3031 RMK A01 T00150007  RH  095%=      5-min Rain = 0
KRRS 060958Z 27006KT 01/01 A3031 RMK A01 T00140007  RH  095%=      5-min Rain = 0
KRRS 060959Z 26005KT 01/01 A3031 RMK A01 T00140006  RH  095%=      5-min Rain = 0
KRRS 061000Z 26006KT 01/01 A3031 RMK A01 T00130006  RH  095%=      5-min Rain = 0
KRRS 061001Z 27005KT 01/01 A3031 RMK A01 T00130006  RH  095%=      5-min Rain = 0
KRRS 061002Z 27005KT 01/01 A3031 RMK A01 T00130007  RH  095%=      5-min Rain = 0
KRRS 061003Z 28005KT 01/01 A3031 RMK A01 T00130007  RH  096%=      5-min Rain = 0
KRRS 061004Z 28005KT 01/01 A3031 RMK A01 T00130007  RH  096%=      5-min Rain = 0
KRRS 061005Z 27006KT 01/01 A3031 RMK A01 T00130007  RH  096%=      5-min Rain = 0
KRRS 061006Z 27006KT 01/01 A3031 RMK A01 T00130007  RH  095%=      5-min Rain = 0
KRRS 061007Z 27006KT 01/01 A3031 RMK A01 T00130006  RH  095%=      5-min Rain = 0
KRRS 061008Z 27006KT 01/01 A3031 RMK A01 T00130006  RH  096%=      5-min Rain = 0
KRRS 061009Z 27007KT 01/01 A3031 RMK A01 T00130007  RH  096%=      5-min Rain = 0
KRRS 061010Z 26006KT 01/01 A3031 RMK A01 T00130008  RH  096%=      5-min Rain = 0
KRRS 061011Z 26006KT 01/01 A3031 RMK A01 T00140008  RH  096%=      5-min Rain = 0
KRRS 061012Z 26006KT 01/01 A3031 RMK A01 T00140008  RH  096%=      5-min Rain = 0
KRRS 061013Z 26007KT 01/01 A3031 RMK A01 T00140008  RH  096%=      5-min Rain = 0
KRRS 061014Z 26007KT 01/01 A3031 RMK A01 T00140008  RH  095%=      5-min Rain = 0
KRRS 061015Z 26007KT 01/01 A3031 RMK A01 T00140007  RH  095%=      5-min Rain = 0
KRRS 061016Z 26007KT 01/01 A3031 RMK A01 T00140007  RH  095%=      5-min Rain = 0
KRRS 061017Z 26007KT 01/01 A3031 RMK A01 T00130007  RH  095%=      5-min Rain = 0
KRRS 061018Z 27006KT 01/01 A3031 RMK A01 T00130006  RH  095%=      5-min Rain = 0
KRRS 061019Z 27006KT 01/01 A3031 RMK A01 T00130006  RH  095%=      5-min Rain = 0
KRRS 061020Z 27006KT 01/01 A3031 RMK A01 T00120005  RH  095%=      5-min Rain = 0
KRRS 061021Z 27006KT 01/01 A3031 RMK A01 T00120005  RH  095%=      5-min Rain = 0
KRRS 061022Z 28006KT 01/01 A3031 RMK A01 T00120005  RH  095%=      5-min Rain = 0
KRRS 061023Z 28006KT 01/01 A3031 RMK A01 T00120005  RH  095%=      5-min Rain = 0
KRRS 061024Z 28007KT 01/01 A3031 RMK A01 T00120005  RH  095%=      5-min Rain = 0
KRRS 061025Z 28007KT 01/01 A3031 RMK A01 T00120005  RH  095%=      5-min Rain = 0
KRRS 061026Z 28007KT 01/01 A3031 RMK A01 T00120006  RH  096%=      5-min Rain = 0
KRRS 061027Z 27007KT 01/01 A3031 RMK A01 T00120006  RH  095%=      5-min Rain = 0
KRRS 061028Z 27007KT 01/01 A3031 RMK A01 T00120006  RH  095%=      5-min Rain = 0
KRRS 061029Z 27007KT 01/01 A3031 RMK A01 T00120006  RH  095%=      5-min Rain = 0
KRRS 061030Z 27007KT 01/01 A3031 RMK A01 T00120005  RH  095%=      5-min Rain = 0
KRRS 061031Z 27007KT 01/01 A3031 RMK A01 T00120005  RH  095%=      5-min Rain = 0
KRRS 061032Z 27007KT 01/01 A3031 RMK A01 T00120006  RH  095%=      5-min Rain = 0
KRRS 061033Z 27007KT 01/01 A3031 RMK A01 T00120006  RH  095%=      5-min Rain = 0
KRRS 061034Z 27007KT 01/01 A3031 RMK A01 T00120006  RH  095%=      5-min Rain = 0
KRRS 061035Z 27007KT 01/01 A3031 RMK A01 T00120006  RH  095%=      5-min Rain = 0
KRRS 061036Z 27007KT 01/01 A3031 RMK A01 T00120005  RH  095%=      5-min Rain = 0
KRRS 061037Z 26008KT 01/01 A3032 RMK A01 T00120005  RH  095%=      5-min Rain = 0
KRRS 061038Z 26008KT 01/01 A3032 RMK A01 T00120005  RH  095%=      5-min Rain = 0
KRRS 061039Z 26008KT 01/01 A3032 RMK A01 T00120005  RH  095%=      5-min Rain = 0
KRRS 061040Z 26008KT 01/00 A3032 RMK A01 T00110004  RH  095%=      5-min Rain = 0
KRRS 061041Z 26009KT 01/01 A3032 RMK A01 T00110005  RH  095%=      5-min Rain = 0
KRRS 061042Z 26009KT 01/01 A3032 RMK A01 T00110005  RH  095%=      5-min Rain = 0
KRRS 061043Z 26009KT 01/01 A3032 RMK A01 T00120005  RH  095%=      5-min Rain = 0
KRRS 061044Z 26009KT 01/01 A3032 RMK A01 T00120005  RH  095%=      5-min Rain = 0
KRRS 061045Z 26009KT 01/01 A3032 RMK A01 T00120005  RH  095%=      5-min Rain = 0
KRRS 061046Z 26009KT 01/01 A3032 RMK A01 T00120006  RH  095%=      5-min Rain = 0
KRRS 061047Z 26008KT 01/01 A3032 RMK A01 T00120005  RH  095%=      5-min Rain = 0
KRRS 061048Z 26009KT 01/00 A3032 RMK A01 T00120004  RH  095%=      5-min Rain = 0
KRRS 061049Z 26009KT 01/00 A3032 RMK A01 T00120004  RH  095%=      5-min Rain = 0
KRRS 061050Z 26009KT 01/00 A3032 RMK A01 T00120004  RH  095%=      5-min Rain = 0
KRRS 061051Z 25009KT 01/00 A3032 RMK A01 T00120004  RH  094%=      5-min Rain = 0
KRRS 061052Z 26009KT 01/00 A3032 RMK A01 T00110003  RH  094%=      5-min Rain = 0
KRRS 061053Z 26009KT 01/00 A3032 RMK A01 T00110003  RH  094%=      5-min Rain = 0
KRRS 061054Z 25009KT 01/00 A3032 RMK A01 T00110003  RH  094%=      5-min Rain = 0
KRRS 061055Z 25009KT 01/00 A3032 RMK A01 T00110003  RH  094%=      5-min Rain = 0
KRRS 061056Z 26009KT 01/00 A3032 RMK A01 T00110002  RH  094%=      5-min Rain = 0
KRRS 061057Z 25009KT 01/00 A3032 RMK A01 T00100002  RH  094%=      5-min Rain = 0
KRRS 061058Z 26009KT 01/00 A3032 RMK A01 T00100002  RH  094%=      5-min Rain = 0
KRRS 061059Z 26009KT 01/00 A3032 RMK A01 T00100002  RH  094%=      5-min Rain = 0
KRRS 061100Z 26008KT 01/00 A3032 RMK A01 T00100002  RH  094%=      5-min Rain = 0
KRRS 061101Z 26008KT 01/00 A3032 RMK A01 T00100002  RH  095%=      5-min Rain = 0
KRRS 061102Z 26008KT 01/00 A3032 RMK A01 T00100002  RH  094%=      5-min Rain = 0
KRRS 061103Z 26008KT 01/00 A3032 RMK A01 T00100002  RH  094%=      5-min Rain = 0
KRRS 061104Z 26008KT 01/00 A3032 RMK A01 T00100002  RH  094%=      5-min Rain = 0
KRRS 061105Z 26008KT 01/00 A3032 RMK A01 T00100002  RH  094%=      5-min Rain = 0
KRRS 061106Z 26008KT 01/00 A3032 RMK A01 T00100001  RH  094%=      5-min Rain = 0
KRRS 061107Z 26009KT 01/00 A3032 RMK A01 T00100001  RH  094%=      5-min Rain = 0
KRRS 061108Z 26009KT 01/00 A3032 RMK A01 T00100001  RH  094%=      5-min Rain = 0
KRRS 061109Z 26009KT 01/00 A3032 RMK A01 T00100001  RH  094%=      5-min Rain = 0
KRRS 061110Z 26009KT 01/00 A3032 RMK A01 T00100001  RH  094%=      5-min Rain = 0
KRRS 061111Z 26009KT 01/00 A3032 RMK A01 T00100001  RH  094%=      5-min Rain = 0
KRRS 061112Z 26009KT 01/00 A3032 RMK A01 T00100001  RH  094%=      5-min Rain = 0
KRRS 061113Z 27009KT 01/00 A3032 RMK A01 T00100001  RH  094%=      5-min Rain = 0
KRRS 061114Z 26009KT 01/00 A3032 RMK A01 T00090001  RH  094%=      5-min Rain = 0
KRRS 061115Z 27009KT 01/00 A3032 RMK A01 T00090001  RH  094%=      5-min Rain = 0
KRRS 061116Z 27008KT 01/00 A3032 RMK A01 T00090001  RH  094%=      5-min Rain = 0
KRRS 061117Z 27009KT 01/00 A3032 RMK A01 T00090001  RH  094%=      5-min Rain = 0
KRRS 061118Z 27009KT 01/00 A3032 RMK A01 T00090001  RH  095%=      5-min Rain = 0
KRRS 061119Z 27009KT 01/00 A3032 RMK A01 T00090001  RH  095%=      5-min Rain = 0
KRRS 061120Z 27009KT 01/00 A3032 RMK A01 T00090002  RH  095%=      5-min Rain = 0
KRRS 061121Z 27009KT 01/00 A3033 RMK A01 T00090002  RH  095%=      5-min Rain = 0
KRRS 061122Z 27009KT 01/00 A3033 RMK A01 T00100003  RH  095%=      5-min Rain = 0
KRRS 061123Z 27009KT 01/00 A3033 RMK A01 T00110003  RH  095%=      5-min Rain = 0
KRRS 061124Z 27009KT 01/00 A3033 RMK A01 T00110002  RH  094%=      5-min Rain = 0
KRRS 061125Z 26008KT 01/00 A3033 RMK A01 T00100002  RH  094%=      5-min Rain = 0
KRRS 061126Z 27009KT 01/00 A3033 RMK A01 T00100002  RH  094%=      5-min Rain = 0
KRRS 061127Z 27009KT 01/00 A3033 RMK A01 T00100002  RH  094%=      5-min Rain = 0
KRRS 061128Z 27009KT 01/00 A3033 RMK A01 T00100002  RH  095%=      5-min Rain = 0
KRRS 061129Z 27009KT 01/00 A3033 RMK A01 T00100002  RH  095%=      5-min Rain = 0
KRRS 061130Z 26009KT 01/00 A3033 RMK A01 T00100002  RH  095%=      5-min Rain = 0
KRRS 061131Z 26009KT 01/00 A3033 RMK A01 T00100002  RH  095%=      5-min Rain = 0
KRRS 061132Z 26009KT 01/00 A3033 RMK A01 T00100002  RH  095%=      5-min Rain = 0
KRRS 061133Z 26009KT 01/00 A3033 RMK A01 T00100002  RH  095%=      5-min Rain = 0
KRRS 061134Z 26010KT 01/00 A3033 RMK A01 T00100003  RH  095%=      5-min Rain = 0
KRRS 061135Z 26009KT 01/00 A3033 RMK A01 T00100003  RH  095%=      5-min Rain = 0
KRRS 061136Z 26009KT 01/00 A3033 RMK A01 T00110003  RH  095%=      5-min Rain = 0
KRRS 061137Z 27010KT 01/00 A3033 RMK A01 T00110004  RH  095%=      5-min Rain = 0
KRRS 061138Z 26009KT 01/00 A3033 RMK A01 T00120004  RH  095%=      5-min Rain = 0
KRRS 061139Z 26009KT 01/01 A3033 RMK A01 T00120005  RH  095%=      5-min Rain = 0
KRRS 061140Z 26009KT 01/00 A3033 RMK A01 T00120004  RH  094%=      5-min Rain = 0
KRRS 061141Z 25008KT 01/00 A3033 RMK A01 T00120004  RH  094%=      5-min Rain = 0
KRRS 061142Z 26008KT 01/00 A3033 RMK A01 T00120003  RH  094%=      5-min Rain = 0
KRRS 061143Z 26009KT 01/00 A3033 RMK A01 T00110002  RH  094%=      5-min Rain = 0
KRRS 061144Z 26009KT 01/00 A3033 RMK A01 T00110002  RH  094%=      5-min Rain = 0
KRRS 061145Z 26009KT 01/00 A3033 RMK A01 T00110003  RH  094%=      5-min Rain = 0
KRRS 061146Z 26009KT 01/00 A3033 RMK A01 T00110003  RH  094%=      5-min Rain = 0
KRRS 061147Z 26008KT 01/00 A3033 RMK A01 T00100002  RH  094%=      5-min Rain = 0
KRRS 061148Z 26009KT 01/00 A3033 RMK A01 T00100002  RH  094%=      5-min Rain = 0
KRRS 061149Z 26008KT 01/00 A3033 RMK A01 T00100002  RH  094%=      5-min Rain = 0
KRRS 061150Z 26008KT 01/00 A3033 RMK A01 T00090001  RH  094%=      5-min Rain = 0
KRRS 061151Z 26009KT 01/00 A3033 RMK A01 T00090001  RH  094%=      5-min Rain = 0
KRRS 061152Z 26008KT 01/00 A3033 RMK A01 T00090001  RH  094%=      5-min Rain = 0
KRRS 061153Z 26008KT 01/00 A3033 RMK A01 T00090001  RH  095%=      5-min Rain = 0
KRRS 061154Z 26009KT 01/00 A3033 RMK A01 T00090001  RH  095%=      5-min Rain = 0
KRRS 061155Z 26008KT 01/00 A3033 RMK A01 T00090001  RH  095%=      5-min Rain = 0
KRRS 061156Z 26009KT 01/00 A3033 RMK A01 T00090001  RH  095%=      5-min Rain = 0
KRRS 061157Z 27009KT 01/00 A3033 RMK A01 T00090001  RH  095%=      5-min Rain = 0
KRRS 061158Z 27009KT 01/00 A3033 RMK A01 T00090001  RH  095%=      5-min Rain = 0
KRRS 061159Z 27009KT 01/00 A3033 RMK A01 T00090002  RH  095%=      5-min Rain = 0
KRRS 061200Z 27009KT 01/00 A3033 RMK A01 T00090002  RH  095%=      5-min Rain = 0
KRRS 061201Z 27009KT 01/00 A3033 RMK A01 T00090002  RH  095%=      5-min Rain = 0
KRRS 061202Z 27009KT 01/00 A3033 RMK A01 T00090002  RH  095%=      5-min Rain = 0
KRRS 061203Z 27009KT 01/00 A3033 RMK A01 T00090002  RH  095%=      5-min Rain = 0
KRRS 061204Z 26009KT 01/00 A3033 RMK A01 T00100002  RH  095%=      5-min Rain = 0
KRRS 061205Z 27009KT 01/00 A3033 RMK A01 T00100003  RH  095%=      5-min Rain = 0
KRRS 061206Z 27009KT 01/00 A3033 RMK A01 T00100003  RH  095%=      5-min Rain = 0
KRRS 061207Z 27009KT 01/00 A3033 RMK A01 T00100002  RH  095%=      5-min Rain = 0
KRRS 061208Z 26009KT 01/00 A3033 RMK A01 T00100002  RH  095%=      5-min Rain = 0
KRRS 061209Z 26009KT 01/00 A3033 RMK A01 T00100003  RH  095%=      5-min Rain = 0
KRRS 061210Z 26009KT 01/00 A3033 RMK A01 T00100003  RH  095%=      5-min Rain = 0
KRRS 061211Z 26009KT 01/00 A3033 RMK A01 T00100003  RH  095%=      5-min Rain = 0
KRRS 061212Z 26009KT 01/00 A3033 RMK A01 T00100003  RH  095%=      5-min Rain = 0
KRRS 061213Z 27009KT 01/00 A3033 RMK A01 T00100003  RH  095%=      5-min Rain = 0
KRRS 061214Z 26009KT 01/00 A3033 RMK A01 T00100003  RH  095%=      5-min Rain = 0
KRRS 061215Z 27009KT 01/00 A3033 RMK A01 T00100003  RH  095%=      5-min Rain = 0
KRRS 061216Z 27009KT 01/00 A3033 RMK A01 T00100003  RH  095%=      5-min Rain = 0
KRRS 061217Z 26009KT 01/00 A3033 RMK A01 T00100003  RH  095%=      5-min Rain = 0
KRRS 061218Z 26009KT 01/00 A3033 RMK A01 T00100003  RH  095%=      5-min Rain = 0
KRRS 061219Z 26009KT 01/00 A3033 RMK A01 T00110004  RH  095%=      5-min Rain = 0
KRRS 061220Z 26009KT 01/00 A3033 RMK A01 T00110004  RH  095%=      5-min Rain = 0
KRRS 061221Z 27009KT 01/01 A3033 RMK A01 T00120005  RH  095%=      5-min Rain = 0
KRRS 061222Z 27009KT 01/01 A3033 RMK A01 T00120005  RH  095%=      5-min Rain = 0
KRRS 061223Z 27009KT 01/01 A3033 RMK A01 T00130005  RH  095%=      5-min Rain = 0
KRRS 061224Z 27009KT 01/01 A3033 RMK A01 T00130005  RH  095%=      5-min Rain = 0
KRRS 061225Z 27008KT 01/01 A3033 RMK A01 T00130005  RH  095%=      5-min Rain = 0
KRRS 061226Z 27008KT 01/01 A3033 RMK A01 T00130005  RH  095%=      5-min Rain = 0
KRRS 061227Z 27008KT 01/01 A3033 RMK A01 T00130005  RH  094%=      5-min Rain = 0
KRRS 061228Z 28009KT 01/00 A3033 RMK A01 T00130004  RH  094%=      5-min Rain = 0
KRRS 061229Z 28008KT 01/00 A3033 RMK A01 T00120004  RH  094%=      5-min Rain = 0
KRRS 061230Z 28008KT 01/00 A3033 RMK A01 T00120004  RH  095%=      5-min Rain = 0
KRRS 061231Z 27008KT 01/01 A3033 RMK A01 T00120005  RH  095%=      5-min Rain = 0
KRRS 061232Z 28008KT 01/00 A3033 RMK A01 T00120004  RH  095%=      5-min Rain = 0
KRRS 061233Z 27008KT 01/00 A3033 RMK A01 T00120004  RH  095%=      5-min Rain = 0
KRRS 061234Z 28008KT 01/00 A3033 RMK A01 T00120004  RH  095%=      5-min Rain = 0
KRRS 061235Z 28007KT 01/00 A3033 RMK A01 T00120004  RH  095%=      5-min Rain = 0
KRRS 061236Z 27007KT 01/01 A3033 RMK A01 T00120005  RH  095%=      5-min Rain = 0
KRRS 061237Z 27007KT 01/01 A3033 RMK A01 T00130005  RH  095%=      5-min Rain = 0
KRRS 061238Z 27008KT 01/01 A3033 RMK A01 T00130005  RH  095%=      5-min Rain = 0
KRRS 061239Z 27008KT 01/01 A3033 RMK A01 T00130005  RH  095%=      5-min Rain = 0
KRRS 061240Z 27008KT 01/01 A3033 RMK A01 T00130005  RH  095%=      5-min Rain = 0
KRRS 061241Z 27009KT 01/01 A3033 RMK A01 T00130006  RH  095%=      5-min Rain = 0
KRRS 061242Z 26008KT 01/01 A3033 RMK A01 T00140006  RH  095%=      5-min Rain = 0
KRRS 061243Z 26008KT 01/01 A3034 RMK A01 T00140006  RH  095%=      5-min Rain = 0
KRRS 061244Z 26008KT 01/01 A3034 RMK A01 T00140006  RH  094%=      5-min Rain = 0
KRRS 061245Z 25008KT 01/01 A3034 RMK A01 T00140006  RH  094%=      5-min Rain = 0
KRRS 061246Z 26008KT 01/01 A3034 RMK A01 T00140005  RH  094%=      5-min Rain = 0
KRRS 061247Z 26008KT 01/00 A3033 RMK A01 T00130004  RH  094%=      5-min Rain = 0
KRRS 061248Z 26008KT 01/01 A3033 RMK A01 T00130005  RH  094%=      5-min Rain = 0
KRRS 061249Z 25008KT 01/00 A3034 RMK A01 T00120004  RH  094%=      5-min Rain = 0
KRRS 061250Z 26008KT 01/00 A3034 RMK A01 T00110002  RH  093%=      5-min Rain = 0
KRRS 061251Z 26008KT 01/00 A3034 RMK A01 T00100000  RH  093%=      5-min Rain = 0
KRRS 061252Z 26008KT 01/M00 A3034 RMK A01 T00091001  RH  094%=      5-min Rain = 0
KRRS 061253Z 26008KT 01/M00 A3034 RMK A01 T00081001  RH  094%=      5-min Rain = 0
KRRS 061254Z 26008KT 01/M00 A3034 RMK A01 T00071001  RH  094%=      5-min Rain = 0
KRRS 061255Z 26009KT 01/00 A3034 RMK A01 T000700-0  RH  095%=      5-min Rain = 0
KRRS 061256Z 26009KT 01/00 A3034 RMK A01 T000700-0  RH  095%=      5-min Rain = 0
KRRS 061257Z 26009KT 01/00 A3034 RMK A01 T00070000  RH  095%=      5-min Rain = 0
KRRS 061258Z 26009KT 01/00 A3034 RMK A01 T00080000  RH  095%=      5-min Rain = 0
KRRS 061259Z 25009KT 01/00 A3034 RMK A01 T00080001  RH  095%=      5-min Rain = 0
KRRS 061300Z 26010KT 01/00 A3034 RMK A01 T00090002  RH  095%=      5-min Rain = 0
KRRS 061301Z 26009KT 01/00 A3034 RMK A01 T00090002  RH  095%=      5-min Rain = 0
KRRS 061302Z 26010KT 01/00 A3034 RMK A01 T00090002  RH  095%=      5-min Rain = 0
KRRS 061303Z 26010KT 01/00 A3034 RMK A01 T00100002  RH  095%=      5-min Rain = 0
KRRS 061304Z 26010KT 01/00 A3034 RMK A01 T00100002  RH  094%=      5-min Rain = 0
KRRS 061305Z 26009KT 01/00 A3034 RMK A01 T00100002  RH  095%=      5-min Rain = 0
KRRS 061306Z 26009KT 01/00 A3034 RMK A01 T00110002  RH  094%=      5-min Rain = 0
KRRS 061307Z 26009KT 01/00 A3034 RMK A01 T00100002  RH  094%=      5-min Rain = 0
KRRS 061308Z 26008KT 01/00 A3034 RMK A01 T00100002  RH  094%=      5-min Rain = 0
KRRS 061309Z 26008KT 01/00 A3034 RMK A01 T00100002  RH  094%=      5-min Rain = 0
KRRS 061310Z 26008KT 01/00 A3034 RMK A01 T00100002  RH  094%=      5-min Rain = 0
KRRS 061311Z 26008KT 01/00 A3034 RMK A01 T00100002  RH  094%=      5-min Rain = 0
KRRS 061312Z 26008KT 01/00 A3034 RMK A01 T00100001  RH  094%=      5-min Rain = 0
KRRS 061313Z 26008KT 01/00 A3034 RMK A01 T00090001  RH  094%=      5-min Rain = 0
KRRS 061314Z 26008KT 01/00 A3034 RMK A01 T00090000  RH  094%=      5-min Rain = 0
KRRS 061315Z 26009KT 01/00 A3034 RMK A01 T000800-0  RH  094%=      5-min Rain = 0
KRRS 061316Z 26008KT 01/00 A3034 RMK A01 T00080000  RH  094%=      5-min Rain = 0
KRRS 061317Z 26008KT 01/00 A3034 RMK A01 T00080000  RH  094%=      5-min Rain = 0
KRRS 061318Z 26008KT 01/00 A3034 RMK A01 T00090001  RH  094%=      5-min Rain = 0
KRRS 061319Z 26009KT 01/00 A3034 RMK A01 T00090001  RH  094%=      5-min Rain = 0
KRRS 061320Z 26008KT 01/00 A3034 RMK A01 T00090002  RH  095%=      5-min Rain = 0
KRRS 061321Z 26009KT 01/00 A3034 RMK A01 T00100002  RH  095%=      5-min Rain = 0
KRRS 061322Z 26009KT 01/00 A3034 RMK A01 T00110003  RH  094%=      5-min Rain = 0
KRRS 061323Z 26008KT 01/00 A3034 RMK A01 T00120003  RH  094%=      5-min Rain = 0
KRRS 061324Z 26009KT 01/00 A3034 RMK A01 T00120004  RH  094%=      5-min Rain = 0
KRRS 061325Z 26009KT 01/00 A3034 RMK A01 T00130004  RH  094%=      5-min Rain = 0
KRRS 061326Z 26009KT 01/00 A3034 RMK A01 T00130004  RH  094%=      5-min Rain = 0
KRRS 061327Z 26009KT 01/00 A3035 RMK A01 T00140004  RH  094%=      5-min Rain = 0
KRRS 061328Z 26009KT 01/00 A3035 RMK A01 T00140004  RH  093%=      5-min Rain = 0
KRRS 061329Z 26009KT 01/01 A3035 RMK A01 T00140005  RH  093%=      5-min Rain = 0
KRRS 061330Z 26009KT 01/01 A3035 RMK A01 T00140005  RH  094%=      5-min Rain = 0
KRRS 061331Z 26008KT 02/01 A3035 RMK A01 T00150006  RH  094%=      5-min Rain = 0
KRRS 061332Z 26009KT 02/01 A3035 RMK A01 T00160006  RH  093%=      5-min Rain = 0
KRRS 061333Z 26009KT 02/01 A3035 RMK A01 T00160006  RH  093%=      5-min Rain = 0
KRRS 061334Z 26008KT 02/01 A3035 RMK A01 T00170007  RH  093%=      5-min Rain = 0
KRRS 061335Z 26008KT 02/01 A3035 RMK A01 T00170007  RH  093%=      5-min Rain = 0
KRRS 061336Z 26008KT 02/01 A3035 RMK A01 T00170006  RH  093%=      5-min Rain = 0
KRRS 061337Z 26008KT 02/01 A3035 RMK A01 T00170007  RH  093%=      5-min Rain = 0
KRRS 061338Z 26008KT 02/01 A3035 RMK A01 T00170007  RH  093%=      5-min Rain = 0
KRRS 061339Z 26008KT 02/01 A3035 RMK A01 T00180007  RH  092%=      5-min Rain = 0
KRRS 061340Z 26008KT 02/01 A3035 RMK A01 T00180007  RH  092%=      5-min Rain = 0
KRRS 061341Z 26008KT 02/01 A3035 RMK A01 T00180007  RH  093%=      5-min Rain = 0
KRRS 061342Z 26008KT 02/01 A3035 RMK A01 T00180007  RH  092%=      5-min Rain = 0
KRRS 061343Z 26008KT 02/01 A3035 RMK A01 T00180007  RH  092%=      5-min Rain = 0
KRRS 061344Z 26007KT 02/01 A3036 RMK A01 T00180007  RH  092%=      5-min Rain = 0
KRRS 061345Z 25008KT 02/01 A3036 RMK A01 T00180007  RH  092%=      5-min Rain = 0
KRRS 061346Z 25008KT 02/01 A3036 RMK A01 T00180007  RH  092%=      5-min Rain = 0
KRRS 061347Z 26008KT 02/01 A3036 RMK A01 T00190007  RH  092%=      5-min Rain = 0
KRRS 061348Z 26008KT 02/01 A3036 RMK A01 T00190008  RH  092%=      5-min Rain = 0
KRRS 061349Z 26008KT 02/01 A3036 RMK A01 T00190008  RH  092%=      5-min Rain = 0
KRRS 061350Z 26008KT 02/01 A3036 RMK A01 T00200009  RH  092%=      5-min Rain = 0
KRRS 061351Z 26008KT 02/01 A3036 RMK A01 T00210009  RH  092%=      5-min Rain = 0
KRRS 061352Z 26008KT 02/01 A3036 RMK A01 T00210010  RH  092%=      5-min Rain = 0
KRRS 061353Z 26007KT 02/01 A3036 RMK A01 T00220011  RH  092%=      5-min Rain = 0
KRRS 061354Z 26007KT 02/01 A3036 RMK A01 T00230011  RH  092%=      5-min Rain = 0
KRRS 061355Z 26007KT 02/01 A3036 RMK A01 T00240013  RH  092%=      5-min Rain = 0
KRRS 061356Z 26007KT 03/01 A3036 RMK A01 T00250014  RH  092%=      5-min Rain = 0
KRRS 061357Z 27006KT 03/01 A3036 RMK A01 T00250014  RH  092%=      5-min Rain = 0
KRRS 061358Z 26007KT 03/02 A3036 RMK A01 T00260015  RH  092%=      5-min Rain = 0
KRRS 061359Z 26007KT 03/02 A3036 RMK A01 T00270015  RH  092%=      5-min Rain = 0
KRRS 061400Z 26007KT 03/02 A3036 RMK A01 T00280016  RH  092%=      5-min Rain = 0
KRRS 061401Z 26007KT 03/02 A3036 RMK A01 T00290017  RH  092%=      5-min Rain = 0
KRRS 061402Z 26007KT 03/02 A3036 RMK A01 T00300018  RH  091%=      5-min Rain = 0
KRRS 061403Z 26007KT 03/02 A3036 RMK A01 T00310019  RH  091%=      5-min Rain = 0
KRRS 061404Z 26007KT 03/02 A3036 RMK A01 T00320019  RH  091%=      5-min Rain = 0
KRRS 061405Z 26007KT 03/02 A3036 RMK A01 T00330020  RH  091%=      5-min Rain = 0
KRRS 061406Z 26007KT 04/02 A3036 RMK A01 T00350021  RH  091%=      5-min Rain = 0
KRRS 061407Z 26007KT 04/02 A3036 RMK A01 T00360022  RH  091%=      5-min Rain = 0
KRRS 061408Z 26007KT 04/02 A3036 RMK A01 T00370023  RH  091%=      5-min Rain = 0
KRRS 061409Z 26007KT 04/02 A3036 RMK A01 T00370023  RH  090%=      5-min Rain = 0
KRRS 061410Z 26007KT 04/02 A3036 RMK A01 T00380023  RH  090%=      5-min Rain = 0
KRRS 061411Z 26008KT 04/02 A3036 RMK A01 T00390024  RH  090%=      5-min Rain = 0
KRRS 061412Z 26007KT 04/02 A3036 RMK A01 T00390024  RH  090%=      5-min Rain = 0
KRRS 061413Z 26007KT 04/03 A3036 RMK A01 T00400025  RH  090%=      5-min Rain = 0
KRRS 061414Z 26008KT 04/03 A3036 RMK A01 T00410026  RH  090%=      5-min Rain = 0
KRRS 061415Z 26007KT 04/03 A3036 RMK A01 T00420028  RH  090%=      5-min Rain = 0
KRRS 061416Z 26007KT 04/03 A3036 RMK A01 T00440028  RH  090%=      5-min Rain = 0
KRRS 061417Z 26006KT 05/03 A3036 RMK A01 T00450029  RH  090%=      5-min Rain = 0
KRRS 061418Z 26007KT 05/03 A3036 RMK A01 T00460030  RH  090%=      5-min Rain = 0
KRRS 061419Z 27006KT 05/03 A3037 RMK A01 T00470031  RH  089%=      5-min Rain = 0
KRRS 061420Z 26006KT 05/03 A3037 RMK A01 T00480032  RH  089%=      5-min Rain = 0
KRRS 061421Z 27006KT 05/03 A3037 RMK A01 T00500034  RH  089%=      5-min Rain = 0
KRRS 061422Z 26006KT 05/04 A3037 RMK A01 T00520035  RH  089%=      5-min Rain = 0
KRRS 061423Z 27006KT 05/04 A3037 RMK A01 T00530035  RH  088%=      5-min Rain = 0
KRRS 061424Z 27006KT 06/04 A3037 RMK A01 T00550036  RH  088%=      5-min Rain = 0
KRRS 061425Z 27007KT 06/04 A3037 RMK A01 T00560037  RH  088%=      5-min Rain = 0
KRRS 061426Z 27006KT 06/04 A3037 RMK A01 T00570037  RH  087%=      5-min Rain = 0
KRRS 061427Z 27006KT 06/04 A3037 RMK A01 T00580039  RH  087%=      5-min Rain = 0
KRRS 061428Z 27007KT 06/04 A3037 RMK A01 T00590039  RH  087%=      5-min Rain = 0
KRRS 061429Z 27007KT 06/04 A3037 RMK A01 T00600038  RH  086%=      5-min Rain = 0
KRRS 061430Z 28006KT 06/04 A3036 RMK A01 T00600037  RH  085%=      5-min Rain = 0
KRRS 061431Z 28006KT 06/04 A3036 RMK A01 T00610040  RH  087%=      5-min Rain = 0
KRRS 061432Z 28005KT 06/04 A3036 RMK A01 T00620041  RH  087%=      5-min Rain = 0
KRRS 061433Z 28006KT 06/04 A3036 RMK A01 T00640042  RH  086%=      5-min Rain = 0
KRRS 061434Z 28006KT 07/04 A3036 RMK A01 T00650042  RH  085%=      5-min Rain = 0
KRRS 061435Z 27006KT 07/04 A3037 RMK A01 T00660041  RH  084%=      5-min Rain = 0
KRRS 061436Z 27006KT 07/04 A3037 RMK A01 T00670043  RH  085%=      5-min Rain = 0
KRRS 061437Z 27006KT 07/05 A3037 RMK A01 T00680045  RH  085%=      5-min Rain = 0
KRRS 061438Z 27006KT 07/05 A3037 RMK A01 T00700045  RH  084%=      5-min Rain = 0
KRRS 061439Z 28005KT 07/05 A3036 RMK A01 T00710046  RH  084%=      5-min Rain = 0
KRRS 061440Z 27006KT 07/05 A3037 RMK A01 T00720046  RH  083%=      5-min Rain = 0
KRRS 061441Z 27007KT 07/05 A3036 RMK A01 T00730047  RH  083%=      5-min Rain = 0
KRRS 061442Z 27006KT 07/05 A3036 RMK A01 T00740046  RH  083%=      5-min Rain = 0
KRRS 061443Z 28006KT 08/05 A3036 RMK A01 T00750048  RH  083%=      5-min Rain = 0
KRRS 061444Z 28005KT 08/05 A3036 RMK A01 T00760048  RH  083%=      5-min Rain = 0
KRRS 061445Z 27006KT 08/05 A3036 RMK A01 T00770048  RH  082%=      5-min Rain = 0
KRRS 061446Z 28005KT 08/05 A3036 RMK A01 T00780047  RH  081%=      5-min Rain = 0
KRRS 061447Z 27005KT 08/05 A3036 RMK A01 T00790049  RH  081%=      5-min Rain = 0
KRRS 061448Z 27005KT 08/05 A3036 RMK A01 T00800049  RH  081%=      5-min Rain = 0
KRRS 061449Z 27005KT 08/05 A3036 RMK A01 T00810050  RH  081%=      5-min Rain = 0
KRRS 061450Z 27006KT 08/05 A3036 RMK A01 T00830051  RH  080%=      5-min Rain = 0
KRRS 061451Z 27006KT 08/05 A3036 RMK A01 T00830048  RH  079%=      5-min Rain = 0
KRRS 061452Z 27005KT 08/05 A3036 RMK A01 T00830050  RH  079%=      5-min Rain = 0
KRRS 061453Z 28005KT 09/05 A3036 RMK A01 T00850050  RH  079%=      5-min Rain = 0
KRRS 061454Z 28006KT 09/05 A3036 RMK A01 T00860050  RH  078%=      5-min Rain = 0
KRRS 061455Z 27006KT 09/05 A3036 RMK A01 T00860049  RH  077%=      5-min Rain = 0
KRRS 061456Z 28006KT 09/05 A3036 RMK A01 T00870049  RH  077%=      5-min Rain = 0
KRRS 061457Z 28004KT 09/05 A3036 RMK A01 T00870049  RH  077%=      5-min Rain = 0
KRRS 061458Z 27005KT 09/05 A3036 RMK A01 T00890051  RH  077%=      5-min Rain = 0
KRRS 061459Z 27004KT 09/05 A3036 RMK A01 T00890050  RH  076%=      5-min Rain = 0
KRRS 061500Z 29004KT 09/05 A3036 RMK A01 T00890052  RH  077%=      5-min Rain = 0
KRRS 061501Z 27004KT 09/05 A3036 RMK A01 T00900052  RH  077%=      5-min Rain = 0
KRRS 061502Z 28004KT 09/05 A3036 RMK A01 T00920050  RH  075%=      5-min Rain = 0
KRRS 061503Z 26002KT 09/05 A3036 RMK A01 T00920049  RH  075%=      5-min Rain = 0
KRRS 061504Z 29004KT 09/05 A3036 RMK A01 T00920050  RH  075%=      5-min Rain = 0
KRRS 061505Z 32004KT 09/05 A3036 RMK A01 T00930046  RH  072%=      5-min Rain = 0
KRRS 061506Z 34003KT 10/04 A3036 RMK A01 T00950040  RH  069%=      5-min Rain = 0
KRRS 061507Z 33003KT 10/04 A3036 RMK A01 T00960036  RH  066%=      5-min Rain = 0
KRRS 061508Z 31001KT 10/03 A3036 RMK A01 T00960034  RH  065%=      5-min Rain = 0
KRRS 061509Z 31001KT 10/04 A3036 RMK A01 T00960036  RH  066%=      5-min Rain = 0
KRRS 061510Z 30002KT 10/04 A3036 RMK A01 T00980038  RH  066%=      5-min Rain = 0
KRRS 061511Z 31002KT 10/04 A3036 RMK A01 T00990038  RH  066%=      5-min Rain = 0
KRRS 061512Z 29003KT 10/04 A3036 RMK A01 T00990040  RH  067%=      5-min Rain = 0
KRRS 061513Z 29003KT 10/04 A3036 RMK A01 T00990042  RH  067%=      5-min Rain = 0
KRRS 061514Z 28003KT 10/04 A3036 RMK A01 T01000041  RH  067%=      5-min Rain = 0
KRRS 061515Z 33002KT 10/04 A3036 RMK A01 T01010040  RH  066%=      5-min Rain = 0
KRRS 061516Z 01004KT 10/04 A3035 RMK A01 T01020041  RH  066%=      5-min Rain = 0
KRRS 061517Z 02004KT 10/04 A3035 RMK A01 T01030037  RH  063%=      5-min Rain = 0
KRRS 061518Z 02004KT 10/03 A3035 RMK A01 T01040033  RH  062%=      5-min Rain = 0
KRRS 061519Z 02004KT 10/03 A3035 RMK A01 T01030033  RH  062%=      5-min Rain = 0
KRRS 061520Z 03004KT 10/03 A3035 RMK A01 T01020034  RH  062%=      5-min Rain = 0
KRRS 061521Z 01004KT 10/03 A3035 RMK A01 T01030033  RH  062%=      5-min Rain = 0
KRRS 061522Z 34003KT 10/03 A3035 RMK A01 T01030031  RH  061%=      5-min Rain = 0
KRRS 061523Z 36004KT 10/03 A3035 RMK A01 T01030032  RH  062%=      5-min Rain = 0
KRRS 061524Z 02004KT 10/03 A3035 RMK A01 T01030033  RH  062%=      5-min Rain = 0
KRRS 061525Z 04005KT 11/04 A3035 RMK A01 T01050037  RH  063%=      5-min Rain = 0
KRRS 061526Z 02005KT 11/04 A3035 RMK A01 T01070036  RH  062%=      5-min Rain = 0
KRRS 061527Z 02003KT 11/03 A3035 RMK A01 T01070033  RH  060%=      5-min Rain = 0
KRRS 061528Z 02001KT 11/03 A3035 RMK A01 T01060031  RH  060%=      5-min Rain = 0
KRRS 061529Z 03001KT 11/03 A3035 RMK A01 T01050032  RH  060%=      5-min Rain = 0
KRRS 061530Z 01004KT 11/03 A3035 RMK A01 T01060034  RH  061%=      5-min Rain = 0
KRRS 061531Z 03005KT 11/04 A3035 RMK A01 T01070035  RH  061%=      5-min Rain = 0
KRRS 061532Z 04005KT 11/03 A3035 RMK A01 T01080032  RH  059%=      5-min Rain = 0
KRRS 061533Z 04005KT 11/03 A3035 RMK A01 T01070032  RH  060%=      5-min Rain = 0
KRRS 061534Z 04004KT 11/03 A3035 RMK A01 T01060031  RH  060%=      5-min Rain = 0
KRRS 061535Z 05003KT 11/03 A3035 RMK A01 T01060031  RH  060%=      5-min Rain = 0
KRRS 061536Z 05003KT 11/03 A3035 RMK A01 T01060032  RH  060%=      5-min Rain = 0
KRRS 061537Z 05003KT 11/03 A3035 RMK A01 T01060031  RH  059%=      5-min Rain = 0
KRRS 061538Z 05003KT 11/03 A3035 RMK A01 T01070032  RH  060%=      5-min Rain = 0
KRRS 061539Z 03004KT 11/04 A3035 RMK A01 T01090035  RH  060%=      5-min Rain = 0
KRRS 061540Z 00005KT 11/03 A3035 RMK A01 T01110033  RH  059%=      5-min Rain = 0
KRRS 061541Z 35004KT 11/03 A3035 RMK A01 T01110031  RH  058%=      5-min Rain = 0
KRRS 061542Z 35003KT 11/03 A3035 RMK A01 T01100032  RH  059%=      5-min Rain = 0
KRRS 061543Z 01003KT 11/03 A3035 RMK A01 T01090030  RH  058%=      5-min Rain = 0
KRRS 061544Z 05004KT 11/03 A3035 RMK A01 T01090033  RH  059%=      5-min Rain = 0
KRRS 061545Z 04006KT 11/03 A3035 RMK A01 T01100030  RH  058%=      5-min Rain = 0
KRRS 061546Z 03004KT 11/03 A3035 RMK A01 T01120032  RH  058%=      5-min Rain = 0
KRRS 061547Z 03004KT 11/03 A3035 RMK A01 T01140030  RH  057%=      5-min Rain = 0
KRRS 061548Z 02003KT 11/03 A3035 RMK A01 T01120027  RH  056%=      5-min Rain = 0
KRRS 061549Z 02002KT 11/03 A3035 RMK A01 T01110028  RH  057%=      5-min Rain = 0
KRRS 061550Z 02003KT 11/03 A3035 RMK A01 T01100029  RH  057%=      5-min Rain = 0
KRRS 061551Z 03002KT 11/03 A3035 RMK A01 T01100031  RH  058%=      5-min Rain = 0
KRRS 061552Z 05001KT 11/03 A3035 RMK A01 T01100030  RH  058%=      5-min Rain = 0
KRRS 061553Z 05002KT 11/03 A3035 RMK A01 T01110032  RH  058%=      5-min Rain = 0
KRRS 061554Z 07001KT 11/03 A3035 RMK A01 T01120031  RH  057%=      5-min Rain = 0
KRRS 061555Z 05004KT 11/03 A3035 RMK A01 T01130029  RH  056%=      5-min Rain = 0
KRRS 061556Z 03005KT 11/03 A3035 RMK A01 T01130030  RH  056%=      5-min Rain = 0
KRRS 061557Z 03004KT 11/03 A3035 RMK A01 T01140031  RH  057%=      5-min Rain = 0
KRRS 061558Z 06004KT 11/03 A3035 RMK A01 T01140030  RH  056%=      5-min Rain = 0
KRRS 061559Z 05004KT 11/03 A3035 RMK A01 T01120030  RH  057%=      5-min Rain = 0
KRRS 061600Z 03004KT 11/03 A3035 RMK A01 T01120031  RH  057%=      5-min Rain = 0
KRRS 061601Z 01003KT 11/03 A3035 RMK A01 T01120031  RH  058%=      5-min Rain = 0
KRRS 061602Z 35001KT 11/03 A3035 RMK A01 T01120030  RH  057%=      5-min Rain = 0
KRRS 061603Z 00001KT 11/03 A3035 RMK A01 T01120030  RH  057%=      5-min Rain = 0
KRRS 061604Z 04002KT 11/03 A3035 RMK A01 T01120031  RH  057%=      5-min Rain = 0
KRRS 061605Z 04004KT 11/03 A3035 RMK A01 T01130030  RH  057%=      5-min Rain = 0
KRRS 061606Z 03003KT 11/03 A3035 RMK A01 T01140029  RH  056%=      5-min Rain = 0
KRRS 061607Z 08002KT 11/03 A3035 RMK A01 T01140029  RH  056%=      5-min Rain = 0
KRRS 061608Z 08005KT 12/03 A3035 RMK A01 T01150030  RH  056%=      5-min Rain = 0
KRRS 061609Z 06006KT 12/03 A3035 RMK A01 T01150031  RH  056%=      5-min Rain = 0
KRRS 061610Z 06004KT 12/03 A3035 RMK A01 T01150028  RH  055%=      5-min Rain = 0
KRRS 061611Z 06003KT 11/03 A3035 RMK A01 T01130028  RH  056%=      5-min Rain = 0
KRRS 061612Z 07003KT 11/03 A3035 RMK A01 T01130027  RH  055%=      5-min Rain = 0
KRRS 061613Z 09001KT 11/03 A3035 RMK A01 T01130026  RH  055%=      5-min Rain = 0
KRRS 061614Z 22002KT 11/03 A3035 RMK A01 T01140027  RH  055%=      5-min Rain = 0
KRRS 061615Z 11003KT 11/03 A3035 RMK A01 T01140027  RH  055%=      5-min Rain = 0
KRRS 061616Z 10004KT 11/03 A3035 RMK A01 T01140029  RH  056%=      5-min Rain = 0
KRRS 061617Z 11002KT 11/03 A3035 RMK A01 T01140029  RH  056%=      5-min Rain = 0
KRRS 061618Z 12002KT 11/03 A3035 RMK A01 T01140031  RH  057%=      5-min Rain = 0
KRRS 061619Z 11002KT 11/03 A3035 RMK A01 T01140030  RH  056%=      5-min Rain = 0
KRRS 061620Z 12002KT 12/03 A3035 RMK A01 T01160029  RH  055%=      5-min Rain = 0
KRRS 061621Z 04004G9KT 12/03 A3035 RMK A01 T01170031  RH  055%=      5-min Rain = 0
KRRS 061622Z 09005KT 12/03 A3035 RMK A01 T01190031  RH  055%=      5-min Rain = 0
KRRS 061623Z 10003KT 12/03 A3035 RMK A01 T01200029  RH  054%=      5-min Rain = 0
KRRS 061624Z 06004KT 12/03 A3035 RMK A01 T01210031  RH  054%=      5-min Rain = 0
KRRS 061625Z 08004KT 12/03 A3035 RMK A01 T01210030  RH  053%=      5-min Rain = 0
KRRS 061626Z 07004KT 12/03 A3035 RMK A01 T01200027  RH  053%=      5-min Rain = 0
KRRS 061627Z 08004KT 12/03 A3035 RMK A01 T01180027  RH  054%=      5-min Rain = 0
KRRS 061628Z 10005KT 12/03 A3035 RMK A01 T01180028  RH  054%=      5-min Rain = 0
KRRS 061629Z 08004KT 12/03 A3035 RMK A01 T01190028  RH  054%=      5-min Rain = 0
KRRS 061630Z 08002KT 12/02 A3035 RMK A01 T01190024  RH  052%=      5-min Rain = 0
KRRS 061631Z 09002KT 12/03 A3035 RMK A01 T01180026  RH  053%=      5-min Rain = 0
KRRS 061632Z 12003KT 12/03 A3035 RMK A01 T01200028  RH  053%=      5-min Rain = 0
KRRS 061633Z 11003KT 12/03 A3035 RMK A01 T01230027  RH  052%=      5-min Rain = 0
KRRS 061634Z 09003KT 12/03 A3035 RMK A01 T01240027  RH  052%=      5-min Rain = 0
KRRS 061635Z 11004KT 13/03 A3035 RMK A01 T01250028  RH  052%=      5-min Rain = 0
KRRS 061636Z 10005KT 13/02 A3035 RMK A01 T01270024  RH  049%=      5-min Rain = 0
KRRS 061637Z 12003KT 12/03 A3035 RMK A01 T01230025  RH  051%=      5-min Rain = 0
KRRS 061638Z 13001KT 12/02 A3035 RMK A01 T01220023  RH  051%=      5-min Rain = 0
KRRS 061639Z 06001KT 12/02 A3035 RMK A01 T01210024  RH  051%=      5-min Rain = 0
KRRS 061640Z 05001KT 12/03 A3035 RMK A01 T01210026  RH  052%=      5-min Rain = 0
KRRS 061641Z 12000KT 12/03 A3035 RMK A01 T01210025  RH  052%=      5-min Rain = 0
KRRS 061642Z 16002KT 12/03 A3035 RMK A01 T01230028  RH  052%=      5-min Rain = 0
KRRS 061643Z 13002KT 13/03 A3035 RMK A01 T01260028  RH  051%=      5-min Rain = 0
KRRS 061644Z 19001KT 13/03 A3034 RMK A01 T01260027  RH  051%=      5-min Rain = 0
KRRS 061645Z 18002KT 13/03 A3034 RMK A01 T01260030  RH  052%=      5-min Rain = 0
KRRS 061646Z 08001KT 13/03 A3034 RMK A01 T01270031  RH  052%=      5-min Rain = 0
KRRS 061647Z 09004KT 13/03 A3034 RMK A01 T01290031  RH  051%=      5-min Rain = 0
KRRS 061648Z 09005KT 13/03 A3034 RMK A01 T01320026  RH  049%=      5-min Rain = 0
KRRS 061649Z 09004KT 13/02 A3034 RMK A01 T01300024  RH  049%=      5-min Rain = 0
KRRS 061650Z 09004KT 13/03 A3034 RMK A01 T01260025  RH  050%=      5-min Rain = 0
KRRS 061651Z 10002KT 13/03 A3034 RMK A01 T01250025  RH  051%=      5-min Rain = 0
KRRS 061652Z 14001KT 13/03 A3034 RMK A01 T01250026  RH  051%=      5-min Rain = 0
KRRS 061653Z 11004KT 13/03 A3034 RMK A01 T01270027  RH  050%=      5-min Rain = 0
KRRS 061654Z 11006KT 13/03 A3034 RMK A01 T01290028  RH  050%=      5-min Rain = 0
KRRS 061655Z 12004KT 13/03 A3034 RMK A01 T01300027  RH  050%=      5-min Rain = 0
KRRS 061656Z 11003KT 13/03 A3034 RMK A01 T01280025  RH  049%=      5-min Rain = 0
KRRS 061657Z 13003KT 13/03 A3034 RMK A01 T01270028  RH  051%=      5-min Rain = 0
KRRS 061658Z 14003KT 13/03 A3034 RMK A01 T01270025  RH  050%=      5-min Rain = 0
KRRS 061659Z 09005KT 13/03 A3034 RMK A01 T01270027  RH  051%=      5-min Rain = 0
KRRS 061700Z 10006KT 13/02 A3034 RMK A01 T01280023  RH  049%=      5-min Rain = 0
KRRS 061701Z 11004KT 13/02 A3034 RMK A01 T01290023  RH  048%=      5-min Rain = 0
KRRS 061702Z 11003KT 13/03 A3034 RMK A01 T01280025  RH  049%=      5-min Rain = 0
KRRS 061703Z 07003KT 13/03 A3034 RMK A01 T01290025  RH  049%=      5-min Rain = 0
KRRS 061704Z 03005KT 13/03 A3034 RMK A01 T01320027  RH  049%=      5-min Rain = 0
KRRS 061705Z 04004KT 13/03 A3034 RMK A01 T01330026  RH  048%=      5-min Rain = 0
KRRS 061706Z 03005KT 13/03 A3034 RMK A01 T01330026  RH  048%=      5-min Rain = 0
KRRS 061707Z 04003KT 13/03 A3034 RMK A01 T01290025  RH  049%=      5-min Rain = 0
KRRS 061708Z 05001KT 13/03 A3033 RMK A01 T01280025  RH  050%=      5-min Rain = 0
KRRS 061709Z 28002KT 13/03 A3033 RMK A01 T01270025  RH  050%=      5-min Rain = 0
KRRS 061710Z 06001KT 13/03 A3033 RMK A01 T01280026  RH  050%=      5-min Rain = 0
KRRS 061711Z 07005KT 13/03 A3033 RMK A01 T01310029  RH  050%=      5-min Rain = 0
KRRS 061712Z 06005KT 13/03 A3033 RMK A01 T01330025  RH  048%=      5-min Rain = 0
KRRS 061713Z 05004KT 13/03 A3034 RMK A01 T01310025  RH  049%=      5-min Rain = 0
KRRS 061714Z 10005KT 13/03 A3034 RMK A01 T01300028  RH  050%=      5-min Rain = 0
KRRS 061715Z 11005KT 13/03 A3034 RMK A01 T01310028  RH  050%=      5-min Rain = 0
KRRS 061716Z 10005G10KT 13/03 A3034 RMK A01 T01310029  RH  050%=      5-min Rain = 0
KRRS 061717Z 11004KT 13/03 A3034 RMK A01 T01330029  RH  049%=      5-min Rain = 0
KRRS 061718Z 13005KT 13/03 A3034 RMK A01 T01340029  RH  049%=      5-min Rain = 0
KRRS 061719Z 11004KT 13/03 A3034 RMK A01 T01340028  RH  049%=      5-min Rain = 0
KRRS 061720Z 09002KT 13/03 A3033 RMK A01 T01330028  RH  049%=      5-min Rain = 0
KRRS 061721Z 07001KT 13/03 A3033 RMK A01 T01320029  RH  050%=      5-min Rain = 0
KRRS 061722Z 08001KT 13/03 A3033 RMK A01 T01330030  RH  050%=      5-min Rain = 0
KRRS 061723Z 07006KT 14/03 A3033 RMK A01 T01360030  RH  049%=      5-min Rain = 0
KRRS 061724Z 09007KT 14/03 A3033 RMK A01 T01400028  RH  047%=      5-min Rain = 0
KRRS 061725Z 08009KT 14/03 A3033 RMK A01 T01420026  RH  046%=      5-min Rain = 0
KRRS 061726Z 06007KT 14/02 A3033 RMK A01 T01390024  RH  046%=      5-min Rain = 0
KRRS 061727Z 06007KT 14/03 A3033 RMK A01 T01360025  RH  047%=      5-min Rain = 0
KRRS 061728Z 07004KT 14/02 A3033 RMK A01 T01360024  RH  047%=      5-min Rain = 0
KRRS 061729Z 09005KT 13/03 A3033 RMK A01 T01340026  RH  048%=      5-min Rain = 0
KRRS 061730Z 09007KT 13/03 A3033 RMK A01 T01340027  RH  048%=      5-min Rain = 0
KRRS 061731Z 09003KT 14/03 A3033 RMK A01 T01350025  RH  048%=      5-min Rain = 0
KRRS 061732Z 09004KT 14/03 A3033 RMK A01 T01350027  RH  048%=      5-min Rain = 0
KRRS 061733Z 12002KT 14/03 A3033 RMK A01 T01350026  RH  048%=      5-min Rain = 0
KRRS 061734Z 06002KT 14/03 A3033 RMK A01 T01350026  RH  048%=      5-min Rain = 0
KRRS 061735Z 06002KT 14/03 A3033 RMK A01 T01350028  RH  048%=      5-min Rain = 0
KRRS 061736Z 15004KT 14/03 A3033 RMK A01 T01370029  RH  048%=      5-min Rain = 0
KRRS 061737Z 16005KT 14/03 A3033 RMK A01 T01400026  RH  046%=      5-min Rain = 0
KRRS 061738Z 14004KT 14/02 A3033 RMK A01 T01400024  RH  045%=      5-min Rain = 0
KRRS 061739Z 16004KT 14/03 A3033 RMK A01 T01400025  RH  046%=      5-min Rain = 0
KRRS 061740Z 13007KT 14/03 A3033 RMK A01 T01410025  RH  045%=      5-min Rain = 0
KRRS 061741Z 13007KT 14/03 A3033 RMK A01 T01410026  RH  046%=      5-min Rain = 0
KRRS 061742Z 12005KT 14/03 A3033 RMK A01 T01400026  RH  046%=      5-min Rain = 0
KRRS 061743Z 11004KT 14/03 A3033 RMK A01 T01380027  RH  047%=      5-min Rain = 0
KRRS 061744Z 09004KT 14/03 A3033 RMK A01 T01370027  RH  047%=      5-min Rain = 0
KRRS 061745Z 08002KT 14/03 A3033 RMK A01 T01380027  RH  047%=      5-min Rain = 0
KRRS 061746Z 07003KT 14/03 A3033 RMK A01 T01380026  RH  047%=      5-min Rain = 0
KRRS 061747Z 06002KT 14/03 A3033 RMK A01 T01360026  RH  047%=      5-min Rain = 0
KRRS 061748Z 11006KT 14/03 A3033 RMK A01 T01360025  RH  047%=      5-min Rain = 0
KRRS 061749Z 10008KT 14/02 A3033 RMK A01 T01390021  RH  045%=      5-min Rain = 0
KRRS 061750Z 11008KT 14/02 A3033 RMK A01 T01420015  RH  042%=      5-min Rain = 0
KRRS 061751Z 12008KT 14/02 A3033 RMK A01 T01420016  RH  043%=      5-min Rain = 0
KRRS 061752Z 11006KT 14/01 A3033 RMK A01 T01430014  RH  042%=      5-min Rain = 0
KRRS 061753Z 13005KT 14/02 A3033 RMK A01 T01420016  RH  042%=      5-min Rain = 0
KRRS 061754Z 10005KT 14/02 A3033 RMK A01 T01410019  RH  044%=      5-min Rain = 0
KRRS 061755Z 09007KT 14/02 A3032 RMK A01 T01420024  RH  045%=      5-min Rain = 0
KRRS 061756Z 09007KT 14/02 A3032 RMK A01 T01430023  RH  044%=      5-min Rain = 0
KRRS 061757Z 09005KT 15/02 A3032 RMK A01 T01450017  RH  042%=      5-min Rain = 0
KRRS 061758Z 07005KT 14/02 A3032 RMK A01 T01420016  RH  042%=      5-min Rain = 0
KRRS 061759Z 07006KT 14/02 A3032 RMK A01 T01400016  RH  043%=      5-min Rain = 0
KRRS 061800Z 09008KT 14/02 A3032 RMK A01 T01400015  RH  043%=      5-min Rain = 0
KRRS 061801Z 11004KT 14/02 A3032 RMK A01 T01390018  RH  044%=      5-min Rain = 0
KRRS 061802Z 11003KT 14/02 A3032 RMK A01 T01390021  RH  045%=      5-min Rain = 0
KRRS 061803Z 08004KT 14/02 A3032 RMK A01 T01400018  RH  044%=      5-min Rain = 0
KRRS 061804Z 07004KT 14/02 A3032 RMK A01 T01410019  RH  044%=      5-min Rain = 0
KRRS 061805Z 07005KT 14/02 A3032 RMK A01 T01410019  RH  044%=      5-min Rain = 0
KRRS 061806Z 11005KT 14/02 A3032 RMK A01 T01410018  RH  043%=      5-min Rain = 0
KRRS 061807Z 09003KT 14/02 A3032 RMK A01 T01390019  RH  044%=      5-min Rain = 0
KRRS 061808Z 09008KT 14/02 A3032 RMK A01 T01410022  RH  045%=      5-min Rain = 0
KRRS 061809Z 10006KT 14/02 A3032 RMK A01 T01440021  RH  044%=      5-min Rain = 0
KRRS 061810Z 10002KT 14/02 A3032 RMK A01 T01430021  RH  044%=      5-min Rain = 0
KRRS 061811Z 10003KT 14/02 A3032 RMK A01 T01420020  RH  043%=      5-min Rain = 0
KRRS 061812Z 09003G8KT 14/02 A3032 RMK A01 T01420019  RH  043%=      5-min Rain = 0
KRRS 061813Z 09008KT 14/02 A3032 RMK A01 T01430020  RH  043%=      5-min Rain = 0
KRRS 061814Z 09007KT 14/02 A3032 RMK A01 T01440019  RH  043%=      5-min Rain = 0
KRRS 061815Z 11007KT 15/02 A3032 RMK A01 T01450022  RH  043%=      5-min Rain = 0
KRRS 061816Z 12005KT 15/02 A3032 RMK A01 T01460024  RH  044%=      5-min Rain = 0
KRRS 061817Z 12004KT 14/02 A3032 RMK A01 T01440024  RH  044%=      5-min Rain = 0
KRRS 061818Z 10004KT 14/03 A3032 RMK A01 T01430025  RH  045%=      5-min Rain = 0
KRRS 061819Z 10005KT 14/03 A3032 RMK A01 T01440025  RH  044%=      5-min Rain = 0
KRRS 061820Z 09009KT 15/03 A3032 RMK A01 T01460025  RH  044%=      5-min Rain = 0
KRRS 061821Z 10007KT 15/02 A3032 RMK A01 T01460023  RH  043%=      5-min Rain = 0
KRRS 061822Z 13002KT 14/02 A3032 RMK A01 T01430023  RH  044%=      5-min Rain = 0
KRRS 061823Z 21001KT 14/02 A3032 RMK A01 T01430024  RH  045%=      5-min Rain = 0
KRRS 061824Z 21002KT 14/03 A3031 RMK A01 T01430025  RH  045%=      5-min Rain = 0
KRRS 061825Z 05003KT 15/03 A3031 RMK A01 T01450029  RH  046%=      5-min Rain = 0
KRRS 061826Z 03004KT 15/02 A3031 RMK A01 T01480024  RH  043%=      5-min Rain = 0
KRRS 061827Z 03003KT 15/02 A3031 RMK A01 T01470022  RH  043%=      5-min Rain = 0
KRRS 061828Z 10008KT 15/02 A3031 RMK A01 T01490023  RH  043%=      5-min Rain = 0
KRRS 061829Z 09010KT 15/02 A3031 RMK A01 T01540015  RH  039%=      5-min Rain = 0
KRRS 061830Z 09010KT 15/01 A3031 RMK A01 T01540010  RH  038%=      5-min Rain = 0
KRRS 061831Z 10008KT 15/01 A3031 RMK A01 T01520007  RH  037%=      5-min Rain = 0
KRRS 061832Z 10008KT 16/01 A3031 RMK A01 T01550013  RH  038%=      5-min Rain = 0
KRRS 061833Z 08005KT 15/01 A3031 RMK A01 T01530014  RH  039%=      5-min Rain = 0
KRRS 061834Z 08004G9KT 15/01 A3031 RMK A01 T01470013  RH  040%=      5-min Rain = 0
KRRS 061835Z 09008KT 15/01 A3031 RMK A01 T01460011  RH  040%=      5-min Rain = 0
KRRS 061836Z 09006KT 15/01 A3031 RMK A01 T01450011  RH  040%=      5-min Rain = 0
KRRS 061837Z 06004G10KT 15/01 A3031 RMK A01 T01450009  RH  040%=      5-min Rain = 0
KRRS 061838Z 09002KT 15/01 A3031 RMK A01 T01460011  RH  040%=      5-min Rain = 0
KRRS 061839Z 09003KT 15/01 A3031 RMK A01 T01480011  RH  039%=      5-min Rain = 0
KRRS 061840Z 08005KT 15/01 A3031 RMK A01 T01510014  RH  039%=      5-min Rain = 0
KRRS 061841Z 09008KT 16/01 A3031 RMK A01 T01560014  RH  038%=      5-min Rain = 0
KRRS 061842Z 09008KT 16/01 A3031 RMK A01 T01570012  RH  037%=      5-min Rain = 0
KRRS 061843Z 08004KT 15/01 A3031 RMK A01 T01540008  RH  037%=      5-min Rain = 0
KRRS 061844Z 11006G12KT 15/01 A3031 RMK A01 T01510008  RH  038%=      5-min Rain = 0
KRRS 061845Z 13010KT 15/01 A3031 RMK A01 T01540005  RH  036%=      5-min Rain = 0
KRRS 061846Z 13008KT 16/00 A3031 RMK A01 T015600-0  RH  034%=      5-min Rain = 0
KRRS 061847Z 13010KT 16/00 A3031 RMK A01 T01560001  RH  035%=      5-min Rain = 0
KRRS 061848Z 12007KT 16/00 A3031 RMK A01 T01600002  RH  034%=      5-min Rain = 0
KRRS 061849Z 12008KT 17/M00 A3031 RMK A01 T01661004  RH  032%=      5-min Rain = 0
KRRS 061850Z 12007KT 17/M00 A3031 RMK A01 T01661004  RH  031%=      5-min Rain = 0
KRRS 061851Z 11008KT 16/M00 A3031 RMK A01 T01631004  RH  032%=      5-min Rain = 0
KRRS 061852Z 12005KT 16/M01 A303 RMK A01 T01591006  RH  032%=      5-min Rain = 0
KRRS 061853Z 08008KT 16/M00 A303 RMK A01 T01561003  RH  034%=      5-min Rain = 0
KRRS 061854Z 09007KT 16/01 A303 RMK A01 T01560005  RH  036%=      5-min Rain = 0
KRRS 061855Z 10002G7KT 16/01 A303 RMK A01 T01550007  RH  036%=      5-min Rain = 0
KRRS 061856Z 13004KT 15/01 A303 RMK A01 T01540009  RH  037%=      5-min Rain = 0
KRRS 061857Z 13006KT 16/01 A303 RMK A01 T01560012  RH  038%=      5-min Rain = 0
KRRS 061858Z 15004KT 16/01 A303 RMK A01 T01580010  RH  037%=      5-min Rain = 0
KRRS 061859Z 14004KT 16/01 A303 RMK A01 T01570012  RH  038%=      5-min Rain = 0
KRRS 061900Z 11003KT 16/01 A303 RMK A01 T01580011  RH  037%=      5-min Rain = 0
KRRS 061901Z 12006KT 16/01 A303 RMK A01 T01590009  RH  036%=      5-min Rain = 0
KRRS 061902Z 16009KT 16/01 A303 RMK A01 T01580010  RH  037%=      5-min Rain = 0
KRRS 061903Z 13004KT 16/01 A303 RMK A01 T01570007  RH  036%=      5-min Rain = 0
KRRS 061904Z 12004KT 16/01 A303 RMK A01 T01560009  RH  037%=      5-min Rain = 0
KRRS 061905Z 17005KT 16/01 A303 RMK A01 T01560010  RH  037%=      5-min Rain = 0
KRRS 061906Z 14008KT 16/01 A303 RMK A01 T01590008  RH  036%=      5-min Rain = 0
KRRS 061907Z 17008KT 16/01 A303 RMK A01 T01630007  RH  035%=      5-min Rain = 0
KRRS 061908Z 16009KT 16/01 A303 RMK A01 T01640005  RH  034%=      5-min Rain = 0
KRRS 061909Z 16011KT 16/01 A303 RMK A01 T01630005  RH  034%=      5-min Rain = 0
KRRS 061910Z 16009KT 17/00 A303 RMK A01 T01650001  RH  033%=      5-min Rain = 0
KRRS 061911Z 16009KT 16/00 A303 RMK A01 T01640000  RH  033%=      5-min Rain = 0
KRRS 061912Z 17009KT 16/00 A303 RMK A01 T01630002  RH  033%=      5-min Rain = 0
KRRS 061913Z 15007KT 16/00 A3029 RMK A01 T01630001  RH  033%=      5-min Rain = 0
KRRS 061914Z 15005KT 17/00 A3029 RMK A01 T01650004  RH  034%=      5-min Rain = 0
KRRS 061915Z 15003KT 17/00 A3029 RMK A01 T01670001  RH  032%=      5-min Rain = 0
KRRS 061916Z 17005KT 17/00 A3029 RMK A01 T01680002  RH  032%=      5-min Rain = 0
KRRS 061917Z 18003KT 17/00 A3029 RMK A01 T01680001  RH  032%=      5-min Rain = 0
KRRS 061918Z 21003KT 17/00 A3029 RMK A01 T01660001  RH  033%=      5-min Rain = 0
KRRS 061919Z 15005KT 16/00 A3029 RMK A01 T01640002  RH  033%=      5-min Rain = 0
KRRS 061920Z 15009KT 16/00 A3029 RMK A01 T01630004  RH  034%=      5-min Rain = 0
KRRS 061921Z 14009KT 16/00 A3029 RMK A01 T01610004  RH  034%=      5-min Rain = 0
KRRS 061922Z 13008KT 16/01 A3029 RMK A01 T01630011  RH  036%=      5-min Rain = 0
KRRS 061923Z 13008KT 17/01 A3029 RMK A01 T01660011  RH  035%=      5-min Rain = 0
KRRS 061924Z 14010KT 17/01 A3029 RMK A01 T01690009  RH  034%=      5-min Rain = 0
KRRS 061925Z 14009KT 17/00 A3029 RMK A01 T01660003  RH  033%=      5-min Rain = 0
KRRS 061926Z 16002G7KT 16/00 A3029 RMK A01 T01600000  RH  034%=      5-min Rain = 0
KRRS 061927Z 16002KT 16/00 A3028 RMK A01 T015700-0  RH  034%=      5-min Rain = 0
KRRS 061928Z 15008KT 16/M00 A3028 RMK A01 T01591002  RH  034%=      5-min Rain = 0
KRRS 061929Z 14011KT 16/M00 A3028 RMK A01 T01631004  RH  032%=      5-min Rain = 0
KRRS 061930Z 13008KT 17/M01 A3028 RMK A01 T01651005  RH  031%=      5-min Rain = 0
KRRS 061931Z 13009KT 16/M00 A3028 RMK A01 T01641003  RH  032%=      5-min Rain = 0
KRRS 061932Z 12008KT 17/00 A3028 RMK A01 T01670004  RH  033%=      5-min Rain = 0
KRRS 061933Z 13009KT 17/01 A3028 RMK A01 T01650005  RH  034%=      5-min Rain = 0
KRRS 061934Z 13007KT 16/01 A3028 RMK A01 T01640007  RH  034%=      5-min Rain = 0
KRRS 061935Z 17005G10KT 16/01 A3028 RMK A01 T01640007  RH  034%=      5-min Rain = 0
KRRS 061936Z 20008KT 17/01 A3028 RMK A01 T01650011  RH  035%=      5-min Rain = 0
KRRS 061937Z 16006KT 17/01 A3028 RMK A01 T01660010  RH  035%=      5-min Rain = 0
KRRS 061938Z 13009KT 17/01 A3028 RMK A01 T01650010  RH  035%=      5-min Rain = 0
KRRS 061939Z 11009KT 17/01 A3028 RMK A01 T01650007  RH  034%=      5-min Rain = 0
KRRS 061940Z 10009KT 16/00 A3027 RMK A01 T01600004  RH  035%=      5-min Rain = 0
KRRS 061941Z 13007G13KT 16/01 A3027 RMK A01 T01580006  RH  036%=      5-min Rain = 0
KRRS 061942Z 13007KT 16/01 A3027 RMK A01 T01620009  RH  035%=      5-min Rain = 0
KRRS 061943Z 13007KT 16/01 A3027 RMK A01 T01640006  RH  034%=      5-min Rain = 0
KRRS 061944Z 16008KT 16/01 A3027 RMK A01 T01630006  RH  034%=      5-min Rain = 0
KRRS 061945Z 17008KT 16/01 A3027 RMK A01 T01620005  RH  034%=      5-min Rain = 0
KRRS 061946Z 17004KT 16/01 A3027 RMK A01 T01630006  RH  035%=      5-min Rain = 0
KRRS 061947Z 18008KT 16/01 A3027 RMK A01 T01630006  RH  034%=      5-min Rain = 0
KRRS 061948Z 18008KT 16/M00 A3027 RMK A01 T01631002  RH  033%=      5-min Rain = 0
KRRS 061949Z 18010KT 16/M00 A3027 RMK A01 T01621002  RH  033%=      5-min Rain = 0
KRRS 061950Z 19008KT 16/M00 A3027 RMK A01 T01631001  RH  033%=      5-min Rain = 0
KRRS 061951Z 18010KT 16/00 A3027 RMK A01 T016300-0  RH  033%=      5-min Rain = 0
KRRS 061952Z 14009G14KT 17/01 A3027 RMK A01 T01660006  RH  034%=      5-min Rain = 0
KRRS 061953Z 13012KT 17/01 A3027 RMK A01 T01690008  RH  034%=      5-min Rain = 0
KRRS 061954Z 11007KT 16/00 A3027 RMK A01 T01640004  RH  034%=      5-min Rain = 0
KRRS 061955Z 13006KT 16/00 A3027 RMK A01 T01570004  RH  035%=      5-min Rain = 0
KRRS 061956Z 17008KT 16/01 A3027 RMK A01 T01570006  RH  036%=      5-min Rain = 0
KRRS 061957Z 17008KT 16/01 A3026 RMK A01 T01610005  RH  035%=      5-min Rain = 0
KRRS 061958Z 13007KT 16/00 A3026 RMK A01 T01610003  RH  034%=      5-min Rain = 0
KRRS 061959Z 11006KT 16/M00 A3026 RMK A01 T01621003  RH  032%=      5-min Rain = 0
KRRS 062000Z 11004KT 16/M01 A3026 RMK A01 T01641010  RH  031%=      5-min Rain = 0
KRRS 062001Z 09001KT 16/M01 A3026 RMK A01 T01601010  RH  031%=      5-min Rain = 0
KRRS 062002Z 08001KT 16/M01 A3026 RMK A01 T01591008  RH  032%=      5-min Rain = 0
KRRS 062003Z 10003KT 16/M01 A3026 RMK A01 T01611007  RH  032%=      5-min Rain = 0
KRRS 062004Z 14005G10KT 16/M00 A3026 RMK A01 T01611003  RH  033%=      5-min Rain = 0
KRRS 062005Z 16008KT 16/00 A3026 RMK A01 T01640003  RH  034%=      5-min Rain = 0
KRRS 062006Z 15006KT 17/00 A3026 RMK A01 T01650002  RH  033%=      5-min Rain = 0
KRRS 062007Z 15013KT 17/M00 A3026 RMK A01 T01671003  RH  031%=      5-min Rain = 0
KRRS 062008Z 15012KT 17/M01 A3026 RMK A01 T01711011  RH  029%=      5-min Rain = 0
KRRS 062009Z 16011KT 17/M01 A3026 RMK A01 T01711012  RH  029%=      5-min Rain = 0
KRRS 062010Z 17010KT 17/M01 A3026 RMK A01 T01711013  RH  029%=      5-min Rain = 0
KRRS 062011Z 18009G15KT 17/M01 A3026 RMK A01 T01671010  RH  030%=      5-min Rain = 0
KRRS 062012Z 18013KT 17/M01 A3025 RMK A01 T01681013  RH  029%=      5-min Rain = 0
KRRS 062013Z 19010KT 17/M01 A3025 RMK A01 T01671013  RH  029%=      5-min Rain = 0
KRRS 062014Z 18006KT 17/M02 A3025 RMK A01 T01671016  RH  029%=      5-min Rain = 0
KRRS 062015Z 16007G12KT 17/M02 A3025 RMK A01 T01671015  RH  029%=      5-min Rain = 0
KRRS 062016Z 17008KT 17/M01 A3025 RMK A01 T01691007  RH  030%=      5-min Rain = 0
KRRS 062017Z 17009KT 17/M00 A3025 RMK A01 T01701003  RH  031%=      5-min Rain = 0
KRRS 062018Z 15010KT 17/M00 A3025 RMK A01 T01681001  RH  032%=      5-min Rain = 0
KRRS 062019Z 15007KT 17/00 A3025 RMK A01 T01660001  RH  033%=      5-min Rain = 0
KRRS 062020Z 16006KT 16/00 A3025 RMK A01 T01630003  RH  034%=      5-min Rain = 0
KRRS 062021Z 18005KT 16/00 A3025 RMK A01 T01620001  RH  033%=      5-min Rain = 0
KRRS 062022Z 15007KT 16/00 A3025 RMK A01 T01620003  RH  034%=      5-min Rain = 0
KRRS 062023Z 12007KT 16/M01 A3025 RMK A01 T01641008  RH  031%=      5-min Rain = 0
KRRS 062024Z 13006KT 17/M00 A3025 RMK A01 T01701003  RH  031%=      5-min Rain = 0
KRRS 062025Z 14009G15KT 17/00 A3024 RMK A01 T01720001  RH  031%=      5-min Rain = 0
KRRS 062026Z 15012G17KT 17/00 A3024 RMK A01 T01700001  RH  032%=      5-min Rain = 0
KRRS 062027Z 15012KT 17/M00 A3024 RMK A01 T01701001  RH  031%=      5-min Rain = 0
KRRS 062028Z 15008KT 17/M01 A3024 RMK A01 T01671006  RH  031%=      5-min Rain = 0
KRRS 062029Z 13010KT 17/M01 A3024 RMK A01 T01651005  RH  032%=      5-min Rain = 0
KRRS 062030Z 14007KT 16/M01 A3024 RMK A01 T01641005  RH  032%=      5-min Rain = 0
KRRS 062031Z 16009KT 16/M01 A3024 RMK A01 T01641006  RH  031%=      5-min Rain = 0
KRRS 062032Z 16009KT 17/M02 A3024 RMK A01 T01671015  RH  029%=      5-min Rain = 0
KRRS 062033Z 17007KT 17/M01 A3024 RMK A01 T01661014  RH  029%=      5-min Rain = 0
KRRS 062034Z 17008KT 17/M02 A3024 RMK A01 T01671015  RH  029%=      5-min Rain = 0
KRRS 062035Z 17012KT 17/M02 A3024 RMK A01 T01671020  RH  028%=      5-min Rain = 0
KRRS 062036Z 17010G15KT 17/M03 A3024 RMK A01 T01661025  RH  027%=      5-min Rain = 0
KRRS 062037Z 15013KT 17/M03 A3024 RMK A01 T01661027  RH  027%=      5-min Rain = 0
KRRS 062038Z 14015KT 17/M03 A3024 RMK A01 T01661025  RH  027%=      5-min Rain = 0
KRRS 062039Z 14014KT 17/M03 A3024 RMK A01 T01671025  RH  027%=      5-min Rain = 0
KRRS 062040Z 15012KT 17/M03 A3024 RMK A01 T01671030  RH  026%=      5-min Rain = 0
KRRS 062041Z 14010KT 17/M04 A3024 RMK A01 T01671036  RH  025%=      5-min Rain = 0
KRRS 062042Z 15008KT 17/M03 A3024 RMK A01 T01661032  RH  026%=      5-min Rain = 0
KRRS 062043Z 17010G17KT 17/M02 A3024 RMK A01 T01681021  RH  027%=      5-min Rain = 0
KRRS 062044Z 16014KT 17/M01 A3024 RMK A01 T01691008  RH  030%=      5-min Rain = 0
KRRS 062045Z 16010KT 17/M01 A3024 RMK A01 T01651006  RH  031%=      5-min Rain = 0
KRRS 062046Z 16009KT 16/M00 A3024 RMK A01 T01641004  RH  032%=      5-min Rain = 0
KRRS 062047Z 14007KT 16/M01 A3024 RMK A01 T01641006  RH  031%=      5-min Rain = 0
KRRS 062048Z 14005KT 16/M01 A3024 RMK A01 T01621006  RH  032%=      5-min Rain = 0
KRRS 062049Z 14006KT 16/M01 A3024 RMK A01 T01611006  RH  032%=      5-min Rain = 0
KRRS 062050Z 15011G16KT 16/M01 A3024 RMK A01 T01621006  RH  032%=      5-min Rain = 0
KRRS 062051Z 15012KT 16/M01 A3023 RMK A01 T01641011  RH  030%=      5-min Rain = 0
KRRS 062052Z 15013KT 17/M01 A3024 RMK A01 T01651014  RH  030%=      5-min Rain = 0
KRRS 062053Z 16012KT 17/M01 A3024 RMK A01 T01661014  RH  029%=      5-min Rain = 0
KRRS 062054Z 16011KT 17/M01 A3024 RMK A01 T01671014  RH  029%=      5-min Rain = 0
KRRS 062055Z 15011KT 17/M02 A3024 RMK A01 T01681015  RH  029%=      5-min Rain = 0
KRRS 062056Z 15008KT 16/M02 A3024 RMK A01 T01641019  RH  029%=      5-min Rain = 0
KRRS 062057Z 15008G13KT 16/M02 A3024 RMK A01 T01621016  RH  030%=      5-min Rain = 0
KRRS 062058Z 17008KT 16/M02 A3024 RMK A01 T01631015  RH  029%=      5-min Rain = 0
KRRS 062059Z 18007KT 16/M02 A3023 RMK A01 T01641022  RH  028%=      5-min Rain = 0
KRRS 062100Z 17010G22KT 17/M03 A3023 RMK A01 T01661026  RH  027%=      5-min Rain = 0
KRRS 062101Z 16013KT 17/M02 A3023 RMK A01 T01671022  RH  027%=      5-min Rain = 0
KRRS 062102Z 16012G17KT 17/M02 A3023 RMK A01 T01681020  RH  028%=      5-min Rain = 0
KRRS 062103Z 16010KT 17/M02 A3023 RMK A01 T01691019  RH  028%=      5-min Rain = 0
KRRS 062104Z 16010KT 17/M02 A3023 RMK A01 T01691018  RH  028%=      5-min Rain = 0
KRRS 062105Z 17009KT 17/M02 A3023 RMK A01 T01711021  RH  027%=      5-min Rain = 0
KRRS 062106Z 17007KT 17/M02 A3023 RMK A01 T01701021  RH  027%=      5-min Rain = 0
KRRS 062107Z 18007KT 17/M02 A3023 RMK A01 T01711022  RH  027%=      5-min Rain = 0
KRRS 062108Z 16006KT 17/M02 A3023 RMK A01 T01721021  RH  027%=      5-min Rain = 0
KRRS 062109Z 15007KT 17/M02 A3023 RMK A01 T01711023  RH  027%=      5-min Rain = 0
KRRS 062110Z 13008KT 17/M02 A3023 RMK A01 T01701022  RH  027%=      5-min Rain = 0
KRRS 062111Z 14008KT 17/M03 A3023 RMK A01 T01701025  RH  026%=      5-min Rain = 0
KRRS 062112Z 14011KT 17/M03 A3023 RMK A01 T01691026  RH  026%=      5-min Rain = 0
KRRS 062113Z 13012KT 17/M03 A3023 RMK A01 T01691032  RH  025%=      5-min Rain = 0
KRRS 062114Z 13009KT 17/M03 A3023 RMK A01 T01711031  RH  025%=      5-min Rain = 0
KRRS 062115Z 14010KT 17/M03 A3023 RMK A01 T01711029  RH  025%=      5-min Rain = 0
KRRS 062116Z 15009G14KT 17/M02 A3022 RMK A01 T01711024  RH  026%=      5-min Rain = 0
KRRS 062117Z 15010KT 17/M02 A3022 RMK A01 T01721022  RH  027%=      5-min Rain = 0
KRRS 062118Z 14010KT 17/M02 A3022 RMK A01 T01721022  RH  027%=      5-min Rain = 0
KRRS 062119Z 14011G17KT 17/M02 A3022 RMK A01 T01691021  RH  027%=      5-min Rain = 0
KRRS 062120Z 14012KT 17/M02 A3022 RMK A01 T01681018  RH  028%=      5-min Rain = 0
KRRS 062121Z 15012KT 17/M02 A3022 RMK A01 T01671016  RH  029%=      5-min Rain = 0
KRRS 062122Z 16010KT 17/M02 A3022 RMK A01 T01681016  RH  029%=      5-min Rain = 0
KRRS 062123Z 15006KT 17/M02 A3022 RMK A01 T01661016  RH  029%=      5-min Rain = 0
KRRS 062124Z 15010KT 16/M01 A3022 RMK A01 T01641014  RH  029%=      5-min Rain = 0
KRRS 062125Z 16011KT 17/M01 A3022 RMK A01 T01671012  RH  029%=      5-min Rain = 0
KRRS 062126Z 15013KT 17/M01 A3022 RMK A01 T01691013  RH  029%=      5-min Rain = 0
KRRS 062127Z 13011G16KT 17/M01 A3022 RMK A01 T01681014  RH  029%=      5-min Rain = 0
KRRS 062128Z 13010KT 17/M02 A3022 RMK A01 T01671016  RH  029%=      5-min Rain = 0
KRRS 062129Z 15008KT 17/M02 A3022 RMK A01 T01661016  RH  029%=      5-min Rain = 0
KRRS 062130Z 14006KT 17/M02 A3022 RMK A01 T01661019  RH  028%=      5-min Rain = 0
KRRS 062131Z 13008KT 17/M02 A3022 RMK A01 T01661017  RH  029%=      5-min Rain = 0
KRRS 062132Z 16010G15KT 17/M01 A3022 RMK A01 T01681014  RH  029%=      5-min Rain = 0
KRRS 062133Z 15012G17KT 17/M02 A3022 RMK A01 T01691016  RH  028%=      5-min Rain = 0
KRRS 062134Z 15015KT 17/M02 A3022 RMK A01 T01691017  RH  028%=      5-min Rain = 0
KRRS 062135Z 16010G15KT 17/M02 A3022 RMK A01 T01681019  RH  028%=      5-min Rain = 0
KRRS 062136Z 18011KT 17/M02 A3022 RMK A01 T01661018  RH  028%=      5-min Rain = 0
KRRS 062137Z 18012KT 17/M02 A3022 RMK A01 T01671018  RH  028%=      5-min Rain = 0
KRRS 062138Z 15011KT 17/M02 A3022 RMK A01 T01671020  RH  028%=      5-min Rain = 0
KRRS 062139Z 14011KT 17/M02 A3022 RMK A01 T01671020  RH  028%=      5-min Rain = 0
KRRS 062140Z 16010KT 17/M02 A3022 RMK A01 T01691020  RH  027%=      5-min Rain = 0
KRRS 062141Z 14011KT 17/M02 A3022 RMK A01 T01691020  RH  028%=      5-min Rain = 0
KRRS 062142Z 14009KT 17/M02 A3022 RMK A01 T01671020  RH  028%=      5-min Rain = 0
KRRS 062143Z 14010KT 17/M02 A3022 RMK A01 T01661023  RH  027%=      5-min Rain = 0
KRRS 062144Z 14009KT 17/M02 A3022 RMK A01 T01661023  RH  027%=      5-min Rain = 0
KRRS 062145Z 16009KT 17/M02 A3022 RMK A01 T01681020  RH  028%=      5-min Rain = 0
KRRS 062146Z 15011G16KT 17/M02 A3022 RMK A01 T01671019  RH  028%=      5-min Rain = 0
KRRS 062147Z 13010KT 17/M02 A3022 RMK A01 T01661019  RH  028%=      5-min Rain = 0
KRRS 062148Z 16011KT 17/M02 A3022 RMK A01 T01661017  RH  029%=      5-min Rain = 0
KRRS 062149Z 17011KT 17/M01 A3021 RMK A01 T01671014  RH  029%=      5-min Rain = 0
KRRS 062150Z 16013KT 17/M02 A3021 RMK A01 T01681016  RH  029%=      5-min Rain = 0
KRRS 062151Z 16014KT 17/M02 A3021 RMK A01 T01681016  RH  028%=      5-min Rain = 0
KRRS 062152Z 16012KT 17/M02 A3021 RMK A01 T01671018  RH  028%=      5-min Rain = 0
KRRS 062153Z 18009KT 17/M02 A3021 RMK A01 T01651015  RH  029%=      5-min Rain = 0
KRRS 062154Z 18009KT 17/M02 A3021 RMK A01 T01651015  RH  029%=      5-min Rain = 0
KRRS 062155Z 17007KT 17/M02 A3021 RMK A01 T01651015  RH  029%=      5-min Rain = 0
KRRS 062156Z 17012KT 17/M01 A3021 RMK A01 T01671013  RH  029%=      5-min Rain = 0
KRRS 062157Z 17009KT 17/M02 A3021 RMK A01 T01701016  RH  028%=      5-min Rain = 0
KRRS 062158Z 16008KT 17/M02 A3021 RMK A01 T01691016  RH  028%=      5-min Rain = 0
KRRS 062159Z 14009KT 17/M02 A3021 RMK A01 T01671016  RH  029%=      5-min Rain = 0
KRRS 062200Z 13011KT 17/M02 A3021 RMK A01 T01661017  RH  029%=      5-min Rain = 0
KRRS 062201Z 12010KT 17/M02 A3021 RMK A01 T01671015  RH  029%=      5-min Rain = 0
KRRS 062202Z 15013KT 17/M01 A3021 RMK A01 T01701013  RH  029%=      5-min Rain = 0
KRRS 062203Z 16009KT 17/M02 A3021 RMK A01 T01711015  RH  028%=      5-min Rain = 0
KRRS 062204Z 16008KT 17/M02 A3021 RMK A01 T01691015  RH  029%=      5-min Rain = 0
KRRS 062205Z 14007KT 17/M02 A3021 RMK A01 T01681015  RH  029%=      5-min Rain = 0
KRRS 062206Z 15010KT 17/M02 A3021 RMK A01 T01671015  RH  029%=      5-min Rain = 0
KRRS 062207Z 14009KT 17/M01 A3021 RMK A01 T01671014  RH  029%=      5-min Rain = 0
KRRS 062208Z 13010KT 17/M01 A3021 RMK A01 T01691014  RH  029%=      5-min Rain = 0
KRRS 062209Z 14012KT 17/M02 A3021 RMK A01 T01711015  RH  028%=      5-min Rain = 0
KRRS 062210Z 15013KT 17/M02 A3021 RMK A01 T01711016  RH  028%=      5-min Rain = 0
KRRS 062211Z 15007KT 17/M02 A3021 RMK A01 T01691017  RH  028%=      5-min Rain = 0
KRRS 062212Z 17007KT 17/M02 A3021 RMK A01 T01681016  RH  028%=      5-min Rain = 0
KRRS 062213Z 18011KT 17/M02 A3021 RMK A01 T01691015  RH  028%=      5-min Rain = 0
KRRS 062214Z 17006KT 17/M02 A3021 RMK A01 T01671017  RH  028%=      5-min Rain = 0
KRRS 062215Z 17008KT 17/M02 A3021 RMK A01 T01661018  RH  028%=      5-min Rain = 0
KRRS 062216Z 15010KT 17/M02 A3021 RMK A01 T01681016  RH  028%=      5-min Rain = 0
KRRS 062217Z 15009KT 17/M01 A3021 RMK A01 T01691013  RH  029%=      5-min Rain = 0
KRRS 062218Z 17008KT 17/M02 A3021 RMK A01 T01691015  RH  028%=      5-min Rain = 0
KRRS 062219Z 17009KT 17/M01 A3021 RMK A01 T01711014  RH  028%=      5-min Rain = 0
KRRS 062220Z 17009KT 17/M01 A3021 RMK A01 T01741013  RH  028%=      5-min Rain = 0
KRRS 062221Z 18009KT 17/M01 A3021 RMK A01 T01741014  RH  028%=      5-min Rain = 0
KRRS 062222Z 16008KT 17/M02 A3021 RMK A01 T01701015  RH  028%=      5-min Rain = 0
KRRS 062223Z 15008KT 17/M02 A3021 RMK A01 T01701016  RH  028%=      5-min Rain = 0
KRRS 062224Z 15009KT 17/M02 A3021 RMK A01 T01711016  RH  028%=      5-min Rain = 0
KRRS 062225Z 15011KT 17/M02 A3021 RMK A01 T01721017  RH  027%=      5-min Rain = 0
KRRS 062226Z 16009KT 17/M02 A3021 RMK A01 T01711019  RH  027%=      5-min Rain = 0
KRRS 062227Z 16011KT 17/M02 A3021 RMK A01 T01681015  RH  029%=      5-min Rain = 0
KRRS 062228Z 16011KT 17/M02 A3021 RMK A01 T01691015  RH  028%=      5-min Rain = 0
KRRS 062229Z 16011KT 17/M02 A3021 RMK A01 T01681015  RH  029%=      5-min Rain = 0
KRRS 062230Z 18008KT 17/M01 A3021 RMK A01 T01681014  RH  029%=      5-min Rain = 0
KRRS 062231Z 17006KT 17/M01 A3021 RMK A01 T01681013  RH  029%=      5-min Rain = 0
KRRS 062232Z 17006KT 17/M01 A3021 RMK A01 T01691012  RH  029%=      5-min Rain = 0
KRRS 062233Z 17008G13KT 17/M01 A3021 RMK A01 T01711011  RH  029%=      5-min Rain = 0
KRRS 062234Z 16010KT 17/M01 A3021 RMK A01 T01721012  RH  029%=      5-min Rain = 0
KRRS 062235Z 16010KT 17/M02 A3021 RMK A01 T01701015  RH  028%=      5-min Rain = 0
KRRS 062236Z 16009KT 17/M01 A3021 RMK A01 T01691014  RH  029%=      5-min Rain = 0
KRRS 062237Z 17012KT 17/M01 A3021 RMK A01 T01681013  RH  029%=      5-min Rain = 0
KRRS 062238Z 18012KT 17/M01 A3021 RMK A01 T01681014  RH  029%=      5-min Rain = 0
KRRS 062239Z 18011KT 17/M01 A3021 RMK A01 T01681013  RH  029%=      5-min Rain = 0
KRRS 062240Z 17009KT 17/M01 A3021 RMK A01 T01681014  RH  029%=      5-min Rain = 0
KRRS 062241Z 17008KT 17/M02 A3021 RMK A01 T01671015  RH  029%=      5-min Rain = 0
KRRS 062242Z 18009KT 17/M02 A3021 RMK A01 T01661015  RH  029%=      5-min Rain = 0
KRRS 062243Z 16011KT 17/M01 A3021 RMK A01 T01661012  RH  030%=      5-min Rain = 0
KRRS 062244Z 16013KT 17/M01 A3021 RMK A01 T01671013  RH  029%=      5-min Rain = 0
KRRS 062245Z 15011KT 17/M01 A3021 RMK A01 T01671012  RH  030%=      5-min Rain = 0
KRRS 062246Z 16011KT 17/M01 A3021 RMK A01 T01671012  RH  029%=      5-min Rain = 0
KRRS 062247Z 14011KT 17/M01 A302 RMK A01 T01661012  RH  030%=      5-min Rain = 0
KRRS 062248Z 14012KT 17/M01 A302 RMK A01 T01651012  RH  030%=      5-min Rain = 0
KRRS 062249Z 14013KT 17/M01 A302 RMK A01 T01661011  RH  030%=      5-min Rain = 0
KRRS 062250Z 16014KT 17/M01 A302 RMK A01 T01681011  RH  030%=      5-min Rain = 0
KRRS 062251Z 16012KT 17/M01 A302 RMK A01 T01681011  RH  030%=      5-min Rain = 0
KRRS 062252Z 17013KT 17/M01 A302 RMK A01 T01671010  RH  030%=      5-min Rain = 0
KRRS 062253Z 17011KT 17/M01 A302 RMK A01 T01651011  RH  030%=      5-min Rain = 0
KRRS 062254Z 16010KT 16/M01 A302 RMK A01 T01641010  RH  031%=      5-min Rain = 0
KRRS 062255Z 16009KT 16/M01 A302 RMK A01 T01641010  RH  031%=      5-min Rain = 0
KRRS 062256Z 15010KT 16/M01 A302 RMK A01 T01641010  RH  030%=      5-min Rain = 0
KRRS 062257Z 16011G16KT 16/M01 A302 RMK A01 T01641010  RH  030%=      5-min Rain = 0
KRRS 062258Z 17011KT 16/M01 A302 RMK A01 T01641010  RH  031%=      5-min Rain = 0
KRRS 062259Z 16012KT 16/M01 A302 RMK A01 T01641011  RH  030%=      5-min Rain = 0
KRRS 062300Z 17009KT 16/M01 A302 RMK A01 T01631011  RH  030%=      5-min Rain = 0
KRRS 062301Z 16012KT 16/M01 A302 RMK A01 T01621011  RH  031%=      5-min Rain = 0
KRRS 062302Z 15011KT 16/M01 A302 RMK A01 T01631011  RH  030%=      5-min Rain = 0
KRRS 062303Z 14008KT 16/M01 A302 RMK A01 T01631013  RH  030%=      5-min Rain = 0
KRRS 062304Z 15010KT 16/M01 A302 RMK A01 T01631012  RH  030%=      5-min Rain = 0
KRRS 062305Z 15011KT 16/M01 A302 RMK A01 T01631012  RH  030%=      5-min Rain = 0
KRRS 062306Z 16007KT 16/M01 A302 RMK A01 T01631012  RH  030%=      5-min Rain = 0
KRRS 062307Z 16006KT 16/M01 A302 RMK A01 T01621012  RH  031%=      5-min Rain = 0
KRRS 062308Z 15008KT 16/M01 A302 RMK A01 T01621011  RH  031%=      5-min Rain = 0
KRRS 062309Z 15010KT 16/M01 A302 RMK A01 T01641011  RH  030%=      5-min Rain = 0
KRRS 062310Z 15009KT 16/M01 A302 RMK A01 T01641012  RH  030%=      5-min Rain = 0
KRRS 062311Z 16006KT 16/M01 A302 RMK A01 T01631012  RH  030%=      5-min Rain = 0
KRRS 062312Z 15011KT 16/M01 A302 RMK A01 T01631012  RH  030%=      5-min Rain = 0
KRRS 062313Z 15008KT 16/M01 A302 RMK A01 T01631013  RH  030%=      5-min Rain = 0
KRRS 062314Z 15010KT 16/M01 A302 RMK A01 T01631014  RH  030%=      5-min Rain = 0
KRRS 062315Z 15011KT 16/M01 A302 RMK A01 T01641013  RH  030%=      5-min Rain = 0
KRRS 062316Z 17009KT 16/M02 A302 RMK A01 T01631015  RH  029%=      5-min Rain = 0
KRRS 062317Z 17009KT 16/M02 A302 RMK A01 T01631016  RH  029%=      5-min Rain = 0
KRRS 062318Z 18009KT 16/M02 A302 RMK A01 T01631015  RH  029%=      5-min Rain = 0
KRRS 062319Z 16009KT 16/M02 A302 RMK A01 T01631015  RH  030%=      5-min Rain = 0
KRRS 062320Z 16011KT 16/M02 A302 RMK A01 T01631016  RH  029%=      5-min Rain = 0
KRRS 062321Z 16008KT 16/M02 A302 RMK A01 T01621017  RH  029%=      5-min Rain = 0
KRRS 062322Z 16009KT 16/M02 A302 RMK A01 T01621016  RH  030%=      5-min Rain = 0
KRRS 062323Z 17006KT 16/M01 A302 RMK A01 T01621013  RH  030%=      5-min Rain = 0
KRRS 062324Z 16007KT 16/M01 A302 RMK A01 T01641014  RH  030%=      5-min Rain = 0
KRRS 062325Z 16007KT 16/M01 A302 RMK A01 T01641014  RH  030%=      5-min Rain = 0
KRRS 062326Z 15008KT 16/M01 A302 RMK A01 T01631014  RH  030%=      5-min Rain = 0
KRRS 062327Z 17008KT 16/M01 A302 RMK A01 T01631013  RH  030%=      5-min Rain = 0
KRRS 062328Z 17009KT 16/M02 A302 RMK A01 T01621015  RH  030%=      5-min Rain = 0
KRRS 062329Z 18010KT 16/M02 A302 RMK A01 T01611015  RH  030%=      5-min Rain = 0
KRRS 062330Z 17010KT 16/M02 A302 RMK A01 T01611015  RH  030%=      5-min Rain = 0
KRRS 062331Z 17008KT 16/M02 A302 RMK A01 T01621016  RH  030%=      5-min Rain = 0
KRRS 062332Z 17008KT 16/M02 A302 RMK A01 T01621019  RH  029%=      5-min Rain = 0
KRRS 062333Z 16007KT 16/M02 A302 RMK A01 T01631019  RH  029%=      5-min Rain = 0
KRRS 062334Z 16010KT 16/M02 A302 RMK A01 T01631017  RH  029%=      5-min Rain = 0
KRRS 062335Z 15012KT 16/M01 A302 RMK A01 T01631014  RH  030%=      5-min Rain = 0
KRRS 062336Z 15012KT 16/M01 A302 RMK A01 T01621012  RH  030%=      5-min Rain = 0
KRRS 062337Z 15012KT 16/M01 A302 RMK A01 T01611012  RH  031%=      5-min Rain = 0
KRRS 062338Z 16011KT 16/M01 A302 RMK A01 T01601012  RH  031%=      5-min Rain = 0
KRRS 062339Z 16009KT 16/M01 A302 RMK A01 T01591011  RH  031%=      5-min Rain = 0
KRRS 062340Z 16009KT 16/M01 A302 RMK A01 T01591011  RH  031%=      5-min Rain = 0
KRRS 062341Z 16009G14KT 16/M01 A302 RMK A01 T01591011  RH  031%=      5-min Rain = 0
KRRS 062342Z 15011KT 16/M01 A302 RMK A01 T01591011  RH  031%=      5-min Rain = 0
KRRS 062343Z 15010KT 16/M01 A302 RMK A01 T01591011  RH  031%=      5-min Rain = 0
KRRS 062344Z 15010KT 16/M01 A302 RMK A01 T01581010  RH  032%=      5-min Rain = 0
KRRS 062345Z 16010KT 16/M01 A302 RMK A01 T01581011  RH  032%=      5-min Rain = 0
KRRS 062346Z 17010KT 16/M01 A302 RMK A01 T01581012  RH  031%=      5-min Rain = 0
KRRS 062347Z 17009KT 16/M01 A302 RMK A01 T01581012  RH  031%=      5-min Rain = 0
KRRS 062348Z 16008KT 16/M01 A302 RMK A01 T01581012  RH  031%=      5-min Rain = 0
KRRS 062349Z 16009KT 16/M01 A302 RMK A01 T01581012  RH  031%=      5-min Rain = 0
KRRS 062350Z 16010KT 16/M01 A302 RMK A01 T01581013  RH  031%=      5-min Rain = 0
KRRS 062351Z 17009KT 16/M01 A302 RMK A01 T01581013  RH  031%=      5-min Rain = 0
KRRS 062352Z 16012KT 16/M01 A302 RMK A01 T01571014  RH  031%=      5-min Rain = 0
KRRS 062353Z 16008KT 16/M02 A302 RMK A01 T01561015  RH  031%=      5-min Rain = 0
KRRS 062354Z 17007KT 16/M01 A302 RMK A01 T01561014  RH  031%=      5-min Rain = 0
KRRS 062355Z 15008KT 16/M01 A302 RMK A01 T01561014  RH  031%=      5-min Rain = 0
KRRS 062356Z 16010KT 16/M01 A302 RMK A01 T01561014  RH  031%=      5-min Rain = 0
KRRS 062357Z 16009KT 16/M01 A302 RMK A01 T01561014  RH  031%=      5-min Rain = 0
KRRS 062358Z 15009KT 16/M01 A302 RMK A01 T01561014  RH  031%=      5-min Rain = 0
KRRS 062359Z 15012KT 16/M02 A302 RMK A01 T01561015  RH  031%=      5-min Rain = 0
KRRS 070000Z 15013KT 16/M02 A302 RMK A01 T01551016  RH  031%=      5-min Rain = 0
KRRS 070001Z 16012KT 16/M02 A302 RMK A01 T01551017  RH  031%=      5-min Rain = 0
KRRS 070002Z 16011KT 15/M02 A302 RMK A01 T01541017  RH  031%=      5-min Rain = 0
KRRS 070003Z 15009KT 15/M02 A302 RMK A01 T01541017  RH  031%=      5-min Rain = 0
KRRS 070004Z 15009KT 15/M02 A302 RMK A01 T01541017  RH  031%=      5-min Rain = 0
KRRS 070005Z 16009KT 15/M02 A302 RMK A01 T01531017  RH  031%=      5-min Rain = 0
KRRS 070006Z 15011KT 15/M02 A302 RMK A01 T01531018  RH  031%=      5-min Rain = 0
KRRS 070007Z 15010KT 15/M02 A302 RMK A01 T01531019  RH  031%=      5-min Rain = 0
KRRS 070008Z 16010KT 15/M02 A302 RMK A01 T01531019  RH  031%=      5-min Rain = 0
KRRS 070009Z 16010KT 15/M02 A302 RMK A01 T01521018  RH  031%=      5-min Rain = 0
KRRS 070010Z 16007KT 15/M02 A302 RMK A01 T01521018  RH  031%=      5-min Rain = 0
KRRS 070011Z 16007KT 15/M02 A302 RMK A01 T01521017  RH  031%=      5-min Rain = 0
KRRS 070012Z 16007KT 15/M02 A302 RMK A01 T01521016  RH  032%=      5-min Rain = 0
KRRS 070013Z 15009KT 15/M02 A302 RMK A01 T01511015  RH  032%=      5-min Rain = 0
KRRS 070014Z 15011KT 15/M01 A302 RMK A01 T01511014  RH  032%=      5-min Rain = 0
KRRS 070015Z 15010KT 15/M01 A302 RMK A01 T01501014  RH  032%=      5-min Rain = 0
KRRS 070016Z 14011KT 15/M01 A302 RMK A01 T01501014  RH  032%=      5-min Rain = 0
KRRS 070017Z 14010KT 15/M02 A302 RMK A01 T01491015  RH  032%=      5-min Rain = 0
KRRS 070018Z 14009KT 15/M02 A302 RMK A01 T01491015  RH  032%=      5-min Rain = 0
KRRS 070019Z 14009KT 15/M02 A302 RMK A01 T01481015  RH  033%=      5-min Rain = 0
KRRS 070020Z 15010KT 15/M02 A302 RMK A01 T01481015  RH  033%=      5-min Rain = 0
KRRS 070021Z 15010KT 15/M02 A302 RMK A01 T01471016  RH  033%=      5-min Rain = 0
KRRS 070022Z 15010KT 15/M02 A302 RMK A01 T01471016  RH  032%=      5-min Rain = 0
KRRS 070023Z 15009KT 15/M02 A302 RMK A01 T01471016  RH  032%=      5-min Rain = 0
KRRS 070024Z 15009KT 15/M02 A302 RMK A01 T01471016  RH  033%=      5-min Rain = 0
KRRS 070025Z 15009KT 15/M02 A302 RMK A01 T01461016  RH  033%=      5-min Rain = 0
KRRS 070026Z 15009KT 15/M02 A302 RMK A01 T01461016  RH  033%=      5-min Rain = 0
KRRS 070027Z 15010KT 15/M02 A302 RMK A01 T01451016  RH  033%=      5-min Rain = 0
KRRS 070028Z 15009KT 15/M02 A302 RMK A01 T01451015  RH  033%=      5-min Rain = 0
KRRS 070029Z 15009KT 14/M02 A302 RMK A01 T01441015  RH  033%=      5-min Rain = 0
KRRS 070030Z 15009KT 14/M02 A302 RMK A01 T01441015  RH  033%=      5-min Rain = 0
KRRS 070031Z 15008KT 14/M02 A302 RMK A01 T01431015  RH  034%=      5-min Rain = 0
KRRS 070032Z 15008KT 14/M02 A302 RMK A01 T01431015  RH  034%=      5-min Rain = 0
KRRS 070033Z 15007KT 14/M02 A302 RMK A01 T01421015  RH  034%=      5-min Rain = 0
KRRS 070034Z 15007KT 14/M02 A302 RMK A01 T01411015  RH  034%=      5-min Rain = 0
KRRS 070035Z 15007KT 14/M02 A302 RMK A01 T01401015  RH  034%=      5-min Rain = 0
KRRS 070036Z 15007KT 14/M02 A302 RMK A01 T01391016  RH  034%=      5-min Rain = 0
KRRS 070037Z 15007KT 14/M02 A302 RMK A01 T01381016  RH  034%=      5-min Rain = 0
KRRS 070038Z 15007KT 14/M02 A302 RMK A01 T01381016  RH  035%=      5-min Rain = 0
KRRS 070039Z 15007KT 14/M02 A302 RMK A01 T01371016  RH  035%=      5-min Rain = 0
KRRS 070040Z 15008KT 14/M02 A302 RMK A01 T01361017  RH  035%=      5-min Rain = 0
KRRS 070041Z 15007KT 14/M02 A302 RMK A01 T01351018  RH  035%=      5-min Rain = 0
KRRS 070042Z 15007KT 14/M02 A302 RMK A01 T01351019  RH  035%=      5-min Rain = 0
KRRS 070043Z 15007KT 13/M02 A302 RMK A01 T01341019  RH  035%=      5-min Rain = 0
KRRS 070044Z 15007KT 13/M02 A302 RMK A01 T01341019  RH  035%=      5-min Rain = 0
KRRS 070045Z 15007KT 13/M02 A302 RMK A01 T01331020  RH  034%=      5-min Rain = 0
KRRS 070046Z 15007KT 13/M02 A302 RMK A01 T01331021  RH  034%=      5-min Rain = 0
KRRS 070047Z 15007KT 13/M02 A302 RMK A01 T01321021  RH  035%=      5-min Rain = 0
KRRS 070048Z 15006KT 13/M02 A302 RMK A01 T01311021  RH  035%=      5-min Rain = 0
KRRS 070049Z 15006KT 13/M02 A302 RMK A01 T01291021  RH  035%=      5-min Rain = 0
KRRS 070050Z 15006KT 13/M02 A302 RMK A01 T01281021  RH  035%=      5-min Rain = 0
KRRS 070051Z 15006KT 13/M02 A3021 RMK A01 T01281021  RH  035%=      5-min Rain = 0
KRRS 070052Z 15006KT 13/M02 A3021 RMK A01 T01271021  RH  036%=      5-min Rain = 0
KRRS 070053Z 15006KT 13/M02 A3021 RMK A01 T01271021  RH  036%=      5-min Rain = 0
KRRS 070054Z 15006KT 13/M02 A3021 RMK A01 T01261021  RH  036%=      5-min Rain = 0
KRRS 070055Z 15006KT 13/M02 A3021 RMK A01 T01251021  RH  036%=      5-min Rain = 0
KRRS 070056Z 15006KT 12/M02 A3021 RMK A01 T01241021  RH  036%=      5-min Rain = 0
KRRS 070057Z 15006KT 12/M02 A3021 RMK A01 T01231020  RH  037%=      5-min Rain = 0
KRRS 070058Z 15006KT 12/M02 A3021 RMK A01 T01231020  RH  037%=      5-min Rain = 0
KRRS 070059Z 15006KT 12/M02 A3021 RMK A01 T01221020  RH  037%=      5-min Rain = 0
KRRS 070100Z 15006KT 12/M02 A3021 RMK A01 T01211019  RH  038%=      5-min Rain = 0
KRRS 070101Z 15006KT 12/M02 A3021 RMK A01 T01201019  RH  038%=      5-min Rain = 0
KRRS 070102Z 15007KT 12/M02 A3021 RMK A01 T01201018  RH  038%=      5-min Rain = 0
KRRS 070103Z 15007KT 12/M02 A3021 RMK A01 T01201018  RH  038%=      5-min Rain = 0
KRRS 070104Z 15007KT 12/M02 A3021 RMK A01 T01201017  RH  038%=      5-min Rain = 0
KRRS 070105Z 15007KT 12/M02 A3021 RMK A01 T01201017  RH  039%=      5-min Rain = 0
KRRS 070106Z 14007KT 12/M02 A3021 RMK A01 T01201017  RH  039%=      5-min Rain = 0
KRRS 070107Z 14006KT 12/M02 A3021 RMK A01 T01201016  RH  039%=      5-min Rain = 0
KRRS 070108Z 15007KT 12/M02 A3021 RMK A01 T01201016  RH  039%=      5-min Rain = 0
KRRS 070109Z 15007KT 12/M02 A3021 RMK A01 T01191016  RH  039%=      5-min Rain = 0
KRRS 070110Z 15007KT 12/M02 A3021 RMK A01 T01181016  RH  039%=      5-min Rain = 0
KRRS 070111Z 14006KT 12/M02 A3021 RMK A01 T01181015  RH  039%=      5-min Rain = 0
KRRS 070112Z 14006KT 12/M02 A3021 RMK A01 T01171016  RH  040%=      5-min Rain = 0
KRRS 070113Z 14007KT 12/M02 A3021 RMK A01 T01171016  RH  040%=      5-min Rain = 0
KRRS 070114Z 14007KT 12/M02 A3021 RMK A01 T01171016  RH  040%=      5-min Rain = 0
KRRS 070115Z 14007KT 12/M02 A3021 RMK A01 T01161016  RH  040%=      5-min Rain = 0
KRRS 070116Z 14007KT 12/M02 A3021 RMK A01 T01161016  RH  040%=      5-min Rain = 0
KRRS 070117Z 14007KT 12/M02 A3021 RMK A01 T01151016  RH  040%=      5-min Rain = 0
KRRS 070118Z 14008KT 12/M02 A3021 RMK A01 T01151016  RH  040%=      5-min Rain = 0
KRRS 070119Z 14008KT 12/M02 A3021 RMK A01 T01151016  RH  040%=      5-min Rain = 0
KRRS 070120Z 14007KT 12/M02 A3021 RMK A01 T01151016  RH  040%=      5-min Rain = 0
KRRS 070121Z 14008KT 12/M02 A3021 RMK A01 T01151016  RH  040%=      5-min Rain = 0
KRRS 070122Z 14007KT 12/M02 A3021 RMK A01 T01151016  RH  040%=      5-min Rain = 0
KRRS 070123Z 14007KT 12/M02 A3021 RMK A01 T01151016  RH  040%=      5-min Rain = 0
KRRS 070124Z 14008KT 11/M02 A3021 RMK A01 T01141017  RH  040%=      5-min Rain = 0
KRRS 070125Z 14007KT 11/M02 A3021 RMK A01 T01131017  RH  040%=      5-min Rain = 0
KRRS 070126Z 14007KT 11/M02 A3021 RMK A01 T01131016  RH  041%=      5-min Rain = 0
KRRS 070127Z 14007KT 11/M02 A3021 RMK A01 T01131016  RH  041%=      5-min Rain = 0
KRRS 070128Z 14008KT 11/M02 A3021 RMK A01 T01121016  RH  041%=      5-min Rain = 0
KRRS 070129Z 14008KT 11/M02 A3021 RMK A01 T01121016  RH  041%=      5-min Rain = 0
KRRS 070130Z 14007KT 11/M02 A3021 RMK A01 T01121016  RH  041%=      5-min Rain = 0
KRRS 070131Z 14007KT 11/M02 A3021 RMK A01 T01121016  RH  041%=      5-min Rain = 0
KRRS 070132Z 14007KT 11/M02 A3021 RMK A01 T01111016  RH  041%=      5-min Rain = 0
KRRS 070133Z 14007KT 11/M02 A3021 RMK A01 T01111016  RH  041%=      5-min Rain = 0
KRRS 070134Z 14007KT 11/M02 A3021 RMK A01 T01101016  RH  041%=      5-min Rain = 0
KRRS 070135Z 14007KT 11/M02 A3021 RMK A01 T01091017  RH  041%=      5-min Rain = 0
KRRS 070136Z 14007KT 11/M02 A3021 RMK A01 T01091017  RH  042%=      5-min Rain = 0
KRRS 070137Z 14007KT 11/M02 A3021 RMK A01 T01081016  RH  042%=      5-min Rain = 0
KRRS 070138Z 14007KT 11/M02 A3021 RMK A01 T01071016  RH  042%=      5-min Rain = 0
KRRS 070139Z 14008KT 11/M02 A3021 RMK A01 T01071016  RH  042%=      5-min Rain = 0
KRRS 070140Z 14008KT 11/M02 A3021 RMK A01 T01071015  RH  042%=      5-min Rain = 0
KRRS 070141Z 14008KT 11/M02 A3021 RMK A01 T01071015  RH  042%=      5-min Rain = 0
KRRS 070142Z 14008KT 11/M02 A3021 RMK A01 T01071015  RH  043%=      5-min Rain = 0
KRRS 070143Z 14008KT 11/M02 A3021 RMK A01 T01061015  RH  043%=      5-min Rain = 0
KRRS 070144Z 14007KT 11/M02 A3021 RMK A01 T01061015  RH  043%=      5-min Rain = 0
KRRS 070145Z 14008KT 11/M02 A3021 RMK A01 T01061015  RH  043%=      5-min Rain = 0
KRRS 070146Z 14008KT 11/M01 A3021 RMK A01 T01061014  RH  043%=      5-min Rain = 0
KRRS 070147Z 14008KT 11/M01 A3021 RMK A01 T01061014  RH  043%=      5-min Rain = 0
KRRS 070148Z 14008KT 11/M01 A3022 RMK A01 T01061014  RH  043%=      5-min Rain = 0
KRRS 070149Z 14009KT 11/M01 A3022 RMK A01 T01061013  RH  043%=      5-min Rain = 0
KRRS 070150Z 14009KT 11/M01 A3022 RMK A01 T01061012  RH  044%=      5-min Rain = 0
KRRS 070151Z 14008KT 11/M01 A3022 RMK A01 T01071012  RH  044%=      5-min Rain = 0
KRRS 070152Z 14008KT 11/M01 A3022 RMK A01 T01071012  RH  044%=      5-min Rain = 0
KRRS 070153Z 14009KT 11/M01 A3022 RMK A01 T01061011  RH  044%=      5-min Rain = 0
KRRS 070154Z 14009KT 11/M01 A3022 RMK A01 T01061011  RH  044%=      5-min Rain = 0
KRRS 070155Z 14009KT 11/M01 A3022 RMK A01 T01061011  RH  044%=      5-min Rain = 0
KRRS 070156Z 14008KT 11/M01 A3022 RMK A01 T01061011  RH  044%=      5-min Rain = 0
KRRS 070157Z 14008KT 11/M01 A3022 RMK A01 T01061011  RH  044%=      5-min Rain = 0
KRRS 070158Z 14007KT 11/M01 A3022 RMK A01 T01051011  RH  045%=      5-min Rain = 0
KRRS 070159Z 14008KT 11/M01 A3022 RMK A01 T01051011  RH  045%=      5-min Rain = 0
KRRS 070200Z 14007KT 11/M01 A3022 RMK A01 T01051010  RH  045%=      5-min Rain = 0
KRRS 070201Z 15008KT 10/M01 A3022 RMK A01 T01041010  RH  045%=      5-min Rain = 0
KRRS 070202Z 14007KT 10/M01 A3022 RMK A01 T01041010  RH  045%=      5-min Rain = 0
KRRS 070203Z 15008KT 10/M01 A3022 RMK A01 T01031010  RH  045%=      5-min Rain = 0
KRRS 070204Z 14008KT 10/M01 A3022 RMK A01 T01031010  RH  045%=      5-min Rain = 0
KRRS 070205Z 15008KT 10/M01 A3022 RMK A01 T01031010  RH  045%=      5-min Rain = 0
KRRS 070206Z 15008KT 10/M01 A3022 RMK A01 T01031010  RH  045%=      5-min Rain = 0
KRRS 070207Z 15008KT 10/M01 A3022 RMK A01 T01031010  RH  045%=      5-min Rain = 0
KRRS 070208Z 15008KT 10/M01 A3022 RMK A01 T01031010  RH  045%=      5-min Rain = 0
KRRS 070209Z 15008KT 10/M01 A3022 RMK A01 T01031009  RH  046%=      5-min Rain = 0
KRRS 070210Z 15008KT 10/M01 A3022 RMK A01 T01031009  RH  046%=      5-min Rain = 0
KRRS 070211Z 15008KT 10/M01 A3022 RMK A01 T01021009  RH  046%=      5-min Rain = 0
KRRS 070212Z 15008KT 10/M01 A3022 RMK A01 T01021009  RH  046%=      5-min Rain = 0
KRRS 070213Z 15007KT 10/M01 A3022 RMK A01 T01021009  RH  046%=      5-min Rain = 0
KRRS 070214Z 14007KT 10/M01 A3022 RMK A01 T01011009  RH  046%=      5-min Rain = 0
KRRS 070215Z 14007KT 10/M01 A3022 RMK A01 T01001009  RH  046%=      5-min Rain = 0
KRRS 070216Z 14008KT 10/M01 A3022 RMK A01 T01001010  RH  046%=      5-min Rain = 0
KRRS 070217Z 15007KT 10/M01 A3022 RMK A01 T01001009  RH  047%=      5-min Rain = 0
KRRS 070218Z 15007KT 10/M01 A3022 RMK A01 T01001009  RH  047%=      5-min Rain = 0
KRRS 070219Z 15007KT 10/M01 A3022 RMK A01 T01001009  RH  047%=      5-min Rain = 0
KRRS 070220Z 15007KT 10/M01 A3022 RMK A01 T01001009  RH  047%=      5-min Rain = 0
KRRS 070221Z 15007KT 10/M01 A3022 RMK A01 T01001009  RH  047%=      5-min Rain = 0
KRRS 070222Z 15006KT 10/M01 A3022 RMK A01 T00991009  RH  047%=      5-min Rain = 0
KRRS 070223Z 15007KT 10/M01 A3022 RMK A01 T00981010  RH  047%=      5-min Rain = 0
KRRS 070224Z 15007KT 10/M01 A3022 RMK A01 T00971010  RH  047%=      5-min Rain = 0
KRRS 070225Z 15007KT 10/M01 A3022 RMK A01 T00971010  RH  047%=      5-min Rain = 0
KRRS 070226Z 15008KT 10/M01 A3022 RMK A01 T00971010  RH  047%=      5-min Rain = 0
KRRS 070227Z 15007KT 10/M01 A3022 RMK A01 T00971009  RH  048%=      5-min Rain = 0
KRRS 070228Z 15007KT 10/M01 A3022 RMK A01 T00971009  RH  048%=      5-min Rain = 0
KRRS 070229Z 15007KT 10/M01 A3022 RMK A01 T00971009  RH  048%=      5-min Rain = 0
KRRS 070230Z 15007KT 10/M01 A3022 RMK A01 T00961009  RH  048%=      5-min Rain = 0
KRRS 070231Z 15008KT 10/M01 A3022 RMK A01 T00961010  RH  048%=      5-min Rain = 0
KRRS 070232Z 15007KT 10/M01 A3022 RMK A01 T00951010  RH  048%=      5-min Rain = 0
KRRS 070233Z 15008KT 09/M01 A3022 RMK A01 T00941010  RH  048%=      5-min Rain = 0
KRRS 070234Z 15007KT 09/M01 A3022 RMK A01 T00941010  RH  048%=      5-min Rain = 0
KRRS 070235Z 15007KT 09/M01 A3022 RMK A01 T00941010  RH  048%=      5-min Rain = 0
KRRS 070236Z 15007KT 09/M01 A3022 RMK A01 T00931010  RH  049%=      5-min Rain = 0
KRRS 070237Z 16007KT 09/M01 A3022 RMK A01 T00921010  RH  049%=      5-min Rain = 0
KRRS 070238Z 16007KT 09/M01 A3022 RMK A01 T00911010  RH  049%=      5-min Rain = 0
KRRS 070239Z 16007KT 09/M01 A3022 RMK A01 T00911010  RH  049%=      5-min Rain = 0
KRRS 070240Z 15007KT 09/M01 A3022 RMK A01 T00911010  RH  049%=      5-min Rain = 0
KRRS 070241Z 15007KT 09/M01 A3022 RMK A01 T00911010  RH  049%=      5-min Rain = 0
KRRS 070242Z 15007KT 09/M01 A3022 RMK A01 T00911010  RH  049%=      5-min Rain = 0
KRRS 070243Z 15007KT 09/M01 A3022 RMK A01 T00901010  RH  050%=      5-min Rain = 0
KRRS 070244Z 15007KT 09/M01 A3022 RMK A01 T00901010  RH  050%=      5-min Rain = 0
KRRS 070245Z 16006KT 09/M01 A3022 RMK A01 T00891010  RH  050%=      5-min Rain = 0
KRRS 070246Z 16006KT 09/M01 A3022 RMK A01 T00891010  RH  050%=      5-min Rain = 0
KRRS 070247Z 16007KT 09/M01 A3022 RMK A01 T00881010  RH  050%=      5-min Rain = 0
KRRS 070248Z 16006KT 09/M01 A3022 RMK A01 T00871010  RH  050%=      5-min Rain = 0
KRRS 070249Z 16006KT 09/M01 A3022 RMK A01 T00871010  RH  051%=      5-min Rain = 0
KRRS 070250Z 16006KT 09/M01 A3023 RMK A01 T00871010  RH  051%=      5-min Rain = 0
KRRS 070251Z 16006KT 09/M01 A3023 RMK A01 T00861010  RH  051%=      5-min Rain = 0
KRRS 070252Z 16006KT 09/M01 A3023 RMK A01 T00861010  RH  051%=      5-min Rain = 0
KRRS 070253Z 16006KT 09/M01 A3023 RMK A01 T00851010  RH  051%=      5-min Rain = 0
KRRS 070254Z 16006KT 09/M01 A3023 RMK A01 T00851010  RH  051%=      5-min Rain = 0
KRRS 070255Z 16006KT 08/M01 A3023 RMK A01 T00841011  RH  051%=      5-min Rain = 0
KRRS 070256Z 16006KT 08/M01 A3023 RMK A01 T00841011  RH  051%=      5-min Rain = 0
KRRS 070257Z 16006KT 08/M01 A3023 RMK A01 T00841011  RH  051%=      5-min Rain = 0
KRRS 070258Z 16007KT 08/M01 A3023 RMK A01 T00841011  RH  051%=      5-min Rain = 0
KRRS 070259Z 16007KT 08/M01 A3023 RMK A01 T00841011  RH  052%=      5-min Rain = 0
KRRS 070300Z 16007KT 08/M01 A3023 RMK A01 T00841011  RH  051%=      5-min Rain = 0
KRRS 070301Z 16007KT 08/M01 A3023 RMK A01 T00841011  RH  051%=      5-min Rain = 0
KRRS 070302Z 16007KT 08/M01 A3023 RMK A01 T00831011  RH  052%=      5-min Rain = 0
KRRS 070303Z 16007KT 08/M01 A3023 RMK A01 T00821011  RH  052%=      5-min Rain = 0
KRRS 070304Z 16006KT 08/M01 A3023 RMK A01 T00821011  RH  052%=      5-min Rain = 0
KRRS 070305Z 16007KT 08/M01 A3023 RMK A01 T00811011  RH  052%=      5-min Rain = 0
KRRS 070306Z 16007KT 08/M01 A3023 RMK A01 T00801011  RH  053%=      5-min Rain = 0
KRRS 070307Z 16007KT 08/M01 A3023 RMK A01 T00791011  RH  053%=      5-min Rain = 0
KRRS 070308Z 16006KT 08/M01 A3023 RMK A01 T00781011  RH  053%=      5-min Rain = 0
KRRS 070309Z 16006KT 08/M01 A3023 RMK A01 T00781011  RH  053%=      5-min Rain = 0
KRRS 070310Z 16006KT 08/M01 A3023 RMK A01 T00781011  RH  053%=      5-min Rain = 0
KRRS 070311Z 16006KT 08/M01 A3023 RMK A01 T00791011  RH  053%=      5-min Rain = 0
KRRS 070312Z 16007KT 08/M01 A3023 RMK A01 T00781011  RH  053%=      5-min Rain = 0
KRRS 070313Z 16007KT 08/M01 A3023 RMK A01 T00791011  RH  053%=      5-min Rain = 0
KRRS 070314Z 16007KT 08/M01 A3023 RMK A01 T00791011  RH  053%=      5-min Rain = 0
KRRS 070315Z 16006KT 08/M01 A3023 RMK A01 T00801011  RH  053%=      5-min Rain = 0
KRRS 070316Z 16006KT 08/M01 A3023 RMK A01 T00801010  RH  053%=      5-min Rain = 0
KRRS 070317Z 16006KT 08/M01 A3023 RMK A01 T00801010  RH  053%=      5-min Rain = 0
KRRS 070318Z 16007KT 08/M01 A3023 RMK A01 T00801010  RH  053%=      5-min Rain = 0
KRRS 070319Z 16006KT 08/M01 A3023 RMK A01 T00801010  RH  053%=      5-min Rain = 0
KRRS 070320Z 16007KT 08/M01 A3023 RMK A01 T00801010  RH  053%=      5-min Rain = 0
KRRS 070321Z 16007KT 08/M01 A3023 RMK A01 T00801010  RH  053%=      5-min Rain = 0
KRRS 070322Z 16007KT 08/M01 A3023 RMK A01 T00801010  RH  053%=      5-min Rain = 0
KRRS 070323Z 16007KT 08/M01 A3023 RMK A01 T00801010  RH  053%=      5-min Rain = 0
KRRS 070324Z 16007KT 08/M01 A3023 RMK A01 T00801010  RH  053%=      5-min Rain = 0
KRRS 070325Z 16007KT 08/M01 A3023 RMK A01 T00801009  RH  053%=      5-min Rain = 0
KRRS 070326Z 16007KT 08/M01 A3023 RMK A01 T00801009  RH  053%=      5-min Rain = 0
KRRS 070327Z 16006KT 08/M01 A3023 RMK A01 T00801009  RH  053%=      5-min Rain = 0
KRRS 070328Z 16006KT 08/M01 A3023 RMK A01 T00801010  RH  053%=      5-min Rain = 0
KRRS 070329Z 16007KT 08/M01 A3023 RMK A01 T00791010  RH  053%=      5-min Rain = 0
KRRS 070330Z 16006KT 08/M01 A3023 RMK A01 T00791010  RH  054%=      5-min Rain = 0
KRRS 070331Z 16006KT 08/M01 A3023 RMK A01 T00791010  RH  054%=      5-min Rain = 0
KRRS 070332Z 16006KT 08/M01 A3023 RMK A01 T00781010  RH  054%=      5-min Rain = 0
KRRS 070333Z 16006KT 08/M01 A3023 RMK A01 T00781010  RH  054%=      5-min Rain = 0
KRRS 070334Z 16006KT 08/M01 A3023 RMK A01 T00771010  RH  054%=      5-min Rain = 0
KRRS 070335Z 16006KT 08/M01 A3023 RMK A01 T00771010  RH  054%=      5-min Rain = 0
KRRS 070336Z 16006KT 08/M01 A3023 RMK A01 T00761010  RH  054%=      5-min Rain = 0
KRRS 070337Z 16006KT 08/M01 A3023 RMK A01 T00761010  RH  055%=      5-min Rain = 0
KRRS 070338Z 16006KT 08/M01 A3023 RMK A01 T00751010  RH  055%=      5-min Rain = 0
KRRS 070339Z 16006KT 08/M01 A3023 RMK A01 T00751010  RH  055%=      5-min Rain = 0
KRRS 070340Z 16006KT 08/M01 A3023 RMK A01 T00751010  RH  055%=      5-min Rain = 0
KRRS 070341Z 16006KT 08/M01 A3023 RMK A01 T00751009  RH  055%=      5-min Rain = 0
KRRS 070342Z 16007KT 08/M01 A3023 RMK A01 T00761009  RH  055%=      5-min Rain = 0
KRRS 070343Z 16006KT 08/M01 A3023 RMK A01 T00761010  RH  055%=      5-min Rain = 0
KRRS 070344Z 16007KT 08/M01 A3023 RMK A01 T00761009  RH  055%=      5-min Rain = 0
KRRS 070345Z 16007KT 08/M01 A3023 RMK A01 T00761009  RH  055%=      5-min Rain = 0
KRRS 070346Z 16007KT 08/M01 A3023 RMK A01 T00761009  RH  055%=      5-min Rain = 0
KRRS 070347Z 16007KT 08/M01 A3023 RMK A01 T00761009  RH  055%=      5-min Rain = 0
KRRS 070348Z 16007KT 08/M01 A3023 RMK A01 T00761009  RH  055%=      5-min Rain = 0
KRRS 070349Z 16007KT 08/M01 A3023 RMK A01 T00761009  RH  055%=      5-min Rain = 0
KRRS 070350Z 16007KT 08/M01 A3023 RMK A01 T00761009  RH  055%=      5-min Rain = 0
KRRS 070351Z 16007KT 08/M01 A3023 RMK A01 T00751009  RH  055%=      5-min Rain = 0
KRRS 070352Z 16007KT 08/M01 A3023 RMK A01 T00751009  RH  055%=      5-min Rain = 0
KRRS 070353Z 16007KT 08/M01 A3023 RMK A01 T00751009  RH  055%=      5-min Rain = 0
KRRS 070354Z 16007KT 08/M01 A3023 RMK A01 T00751009  RH  055%=      5-min Rain = 0
KRRS 070355Z 16007KT 08/M01 A3023 RMK A01 T00751008  RH  055%=      5-min Rain = 0
KRRS 070356Z 16007KT 08/M01 A3023 RMK A01 T00751008  RH  056%=      5-min Rain = 0
KRRS 070357Z 16007KT 08/M01 A3023 RMK A01 T00751008  RH  056%=      5-min Rain = 0
KRRS 070358Z 16007KT 08/M01 A3023 RMK A01 T00771007  RH  055%=      5-min Rain = 0
KRRS 070359Z 16007KT 08/M01 A3023 RMK A01 T00771007  RH  055%=      5-min Rain = 0
KRRS 070400Z 16007KT 08/M01 A3023 RMK A01 T00771008  RH  055%=      5-min Rain = 0
KRRS 070401Z 16007KT 08/M01 A3023 RMK A01 T00761007  RH  055%=      5-min Rain = 0
KRRS 070402Z 16006KT 08/M01 A3023 RMK A01 T00761007  RH  055%=      5-min Rain = 0
KRRS 070403Z 16007KT 08/M01 A3023 RMK A01 T00751008  RH  056%=      5-min Rain = 0
KRRS 070404Z 16007KT 07/M01 A3023 RMK A01 T00741008  RH  056%=      5-min Rain = 0
KRRS 070405Z 17007KT 07/M01 A3023 RMK A01 T00731008  RH  056%=      5-min Rain = 0
KRRS 070406Z 17007KT 07/M01 A3023 RMK A01 T00721008  RH  057%=      5-min Rain = 0
KRRS 070407Z 17007KT 07/M01 A3023 RMK A01 T00701009  RH  057%=      5-min Rain = 0
KRRS 070408Z 17007KT 07/M01 A3023 RMK A01 T00681009  RH  058%=      5-min Rain = 0
KRRS 070409Z 17007KT 07/M01 A3023 RMK A01 T00671010  RH  058%=      5-min Rain = 0
KRRS 070410Z 17007KT 07/M01 A3023 RMK A01 T00661010  RH  059%=      5-min Rain = 0
KRRS 070411Z 17006KT 07/M01 A3023 RMK A01 T00651010  RH  059%=      5-min Rain = 0
KRRS 070412Z 17007KT 07/M01 A3023 RMK A01 T00651009  RH  059%=      5-min Rain = 0
KRRS 070413Z 17007KT 06/M01 A3023 RMK A01 T00641010  RH  059%=      5-min Rain = 0
KRRS 070414Z 17007KT 06/M01 A3023 RMK A01 T00641010  RH  059%=      5-min Rain = 0
KRRS 070415Z 17007KT 06/M01 A3023 RMK A01 T00641010  RH  059%=      5-min Rain = 0
KRRS 070416Z 16008KT 06/M01 A3023 RMK A01 T00631010  RH  060%=      5-min Rain = 0
KRRS 070417Z 16007KT 06/M01 A3023 RMK A01 T00631010  RH  060%=      5-min Rain = 0
KRRS 070418Z 16007KT 06/M01 A3023 RMK A01 T00631010  RH  059%=      5-min Rain = 0
KRRS 070419Z 16007KT 06/M01 A3023 RMK A01 T00631010  RH  059%=      5-min Rain = 0
KRRS 070420Z 16007KT 06/M01 A3023 RMK A01 T00641009  RH  060%=      5-min Rain = 0
KRRS 070421Z 16007KT 07/M01 A3023 RMK A01 T00651007  RH  060%=      5-min Rain = 0
KRRS 070422Z 16007KT 07/M01 A3023 RMK A01 T00681007  RH  059%=      5-min Rain = 0
KRRS 070423Z 16007KT 07/M01 A3023 RMK A01 T00691006  RH  059%=      5-min Rain = 0
KRRS 070424Z 16006KT 07/M01 A3023 RMK A01 T00721006  RH  058%=      5-min Rain = 0
KRRS 070425Z 16006KT 07/M01 A3023 RMK A01 T00731006  RH  057%=      5-min Rain = 0
KRRS 070426Z 16007KT 07/M01 A3023 RMK A01 T00731006  RH  057%=      5-min Rain = 0
KRRS 070427Z 16007KT 07/M01 A3023 RMK A01 T00731006  RH  057%=      5-min Rain = 0
KRRS 070428Z 16007KT 07/M01 A3023 RMK A01 T00731006  RH  057%=      5-min Rain = 0
KRRS 070429Z 16007KT 07/M01 A3024 RMK A01 T00741006  RH  057%=      5-min Rain = 0
KRRS 070430Z 16006KT 07/M01 A3024 RMK A01 T00731006  RH  057%=      5-min Rain = 0
KRRS 070431Z 16007KT 07/M01 A3024 RMK A01 T00741006  RH  057%=      5-min Rain = 0
KRRS 070432Z 16006KT 07/M01 A3024 RMK A01 T00731006  RH  057%=      5-min Rain = 0
KRRS 070433Z 16007KT 07/M01 A3024 RMK A01 T00721006  RH  058%=      5-min Rain = 0
KRRS 070434Z 16006KT 07/M01 A3024 RMK A01 T00711006  RH  058%=      5-min Rain = 0
KRRS 070435Z 17006KT 07/M01 A3024 RMK A01 T00711006  RH  058%=      5-min Rain = 0
KRRS 070436Z 17006KT 07/M01 A3024 RMK A01 T00691007  RH  058%=      5-min Rain = 0
KRRS 070437Z 17006KT 07/M01 A3024 RMK A01 T00681008  RH  059%=      5-min Rain = 0
KRRS 070438Z 17006KT 07/M01 A3024 RMK A01 T00661008  RH  059%=      5-min Rain = 0
KRRS 070439Z 17006KT 07/M01 A3024 RMK A01 T00651008  RH  060%=      5-min Rain = 0
KRRS 070440Z 17006KT 06/M01 A3024 RMK A01 T00641008  RH  060%=      5-min Rain = 0
KRRS 070441Z 17007KT 06/M01 A3024 RMK A01 T00641007  RH  060%=      5-min Rain = 0
KRRS 070442Z 18007KT 07/M01 A3024 RMK A01 T00651007  RH  060%=      5-min Rain = 0
KRRS 070443Z 18006KT 06/M01 A3024 RMK A01 T00641007  RH  060%=      5-min Rain = 0
KRRS 070444Z 18006KT 06/M01 A3024 RMK A01 T00641008  RH  060%=      5-min Rain = 0
KRRS 070445Z 18006KT 06/M01 A3024 RMK A01 T00621008  RH  061%=      5-min Rain = 0
KRRS 070446Z 18006KT 06/M01 A3024 RMK A01 T00621008  RH  061%=      5-min Rain = 0
KRRS 070447Z 18006KT 06/M01 A3024 RMK A01 T00621008  RH  061%=      5-min Rain = 0
KRRS 070448Z 17007KT 06/M01 A3024 RMK A01 T00631008  RH  061%=      5-min Rain = 0
KRRS 070449Z 17007KT 06/M01 A3024 RMK A01 T00631008  RH  061%=      5-min Rain = 0
KRRS 070450Z 17006KT 06/M01 A3024 RMK A01 T00631008  RH  061%=      5-min Rain = 0
KRRS 070451Z 17007KT 06/M01 A3024 RMK A01 T00641007  RH  061%=      5-min Rain = 0
KRRS 070452Z 17007KT 06/M01 A3024 RMK A01 T00641007  RH  060%=      5-min Rain = 0
KRRS 070453Z 17007KT 06/M01 A3024 RMK A01 T00641007  RH  060%=      5-min Rain = 0
KRRS 070454Z 17007KT 06/M01 A3024 RMK A01 T00641006  RH  061%=      5-min Rain = 0
KRRS 070455Z 17007KT 06/M01 A3024 RMK A01 T00641006  RH  061%=      5-min Rain = 0
KRRS 070456Z 17007KT 06/M01 A3024 RMK A01 T00641007  RH  061%=      5-min Rain = 0
KRRS 070457Z 17007KT 06/M01 A3024 RMK A01 T00641007  RH  061%=      5-min Rain = 0
KRRS 070458Z 17006KT 06/M01 A3024 RMK A01 T00641006  RH  061%=      5-min Rain = 0
KRRS 070459Z 17006KT 06/M01 A3024 RMK A01 T00641006  RH  061%=      5-min Rain = 0
KRRS 070500Z 17007KT 07/M01 A3024 RMK A01 T00651006  RH  061%=      5-min Rain = 0
KRRS 070501Z 17007KT 07/M01 A3024 RMK A01 T00651006  RH  061%=      5-min Rain = 0
KRRS 070502Z 17007KT 07/M01 A3024 RMK A01 T00651006  RH  061%=      5-min Rain = 0
KRRS 070503Z 17007KT 07/M01 A3024 RMK A01 T00651006  RH  061%=      5-min Rain = 0
KRRS 070504Z 17007KT 06/M01 A3024 RMK A01 T00641006  RH  061%=      5-min Rain = 0
KRRS 070505Z 17007KT 06/M01 A3024 RMK A01 T00631006  RH  061%=      5-min Rain = 0
KRRS 070506Z 17007KT 06/M01 A3024 RMK A01 T00631005  RH  062%=      5-min Rain = 0
KRRS 070507Z 17007KT 06/M01 A3024 RMK A01 T00631005  RH  062%=      5-min Rain = 0
KRRS 070508Z 17007KT 06/M01 A3024 RMK A01 T00631005  RH  062%=      5-min Rain = 0
KRRS 070509Z 17007KT 06/M01 A3024 RMK A01 T00631005  RH  062%=      5-min Rain = 0
KRRS 070510Z 17007KT 06/M01 A3024 RMK A01 T00631005  RH  062%=      5-min Rain = 0
KRRS 070511Z 17007KT 06/M01 A3024 RMK A01 T00631005  RH  062%=      5-min Rain = 0
KRRS 070512Z 17007KT 06/M01 A3024 RMK A01 T00631005  RH  062%=      5-min Rain = 0
KRRS 070513Z 17007KT 06/M01 A3024 RMK A01 T00631005  RH  062%=      5-min Rain = 0
KRRS 070514Z 17007KT 06/M01 A3024 RMK A01 T00631005  RH  062%=      5-min Rain = 0
KRRS 070515Z 17007KT 06/M01 A3024 RMK A01 T00631005  RH  062%=      5-min Rain = 0
KRRS 070516Z 16007KT 06/M01 A3024 RMK A01 T00631006  RH  062%=      5-min Rain = 0
KRRS 070517Z 16007KT 06/M01 A3024 RMK A01 T00621005  RH  062%=      5-min Rain = 0
KRRS 070518Z 17007KT 06/M01 A3024 RMK A01 T00621005  RH  062%=      5-min Rain = 0
KRRS 070519Z 17007KT 06/M01 A3024 RMK A01 T00621005  RH  062%=      5-min Rain = 0
KRRS 070520Z 17007KT 06/M01 A3024 RMK A01 T00631005  RH  062%=      5-min Rain = 0
KRRS 070521Z 17007KT 06/M01 A3024 RMK A01 T00631005  RH  062%=      5-min Rain = 0
KRRS 070522Z 17007KT 06/M01 A3024 RMK A01 T00621005  RH  062%=      5-min Rain = 0
KRRS 070523Z 17007KT 06/M01 A3024 RMK A01 T00631005  RH  062%=      5-min Rain = 0
KRRS 070524Z 17007KT 06/M01 A3024 RMK A01 T00621005  RH  062%=      5-min Rain = 0
KRRS 070525Z 17008KT 06/M01 A3024 RMK A01 T00621005  RH  062%=      5-min Rain = 0
KRRS 070526Z 17007KT 06/M01 A3024 RMK A01 T00621005  RH  062%=      5-min Rain = 0
KRRS 070527Z 17007KT 06/M01 A3024 RMK A01 T00621005  RH  062%=      5-min Rain = 0
KRRS 070528Z 17007KT 06/M01 A3024 RMK A01 T00611005  RH  062%=      5-min Rain = 0
KRRS 070529Z 17008KT 06/M01 A3024 RMK A01 T00611005  RH  063%=      5-min Rain = 0
KRRS 070530Z 17008KT 06/M01 A3024 RMK A01 T00601005  RH  063%=      5-min Rain = 0
KRRS 070531Z 17008KT 06/M01 A3024 RMK A01 T00601005  RH  063%=      5-min Rain = 0
KRRS 070532Z 17008KT 06/M01 A3024 RMK A01 T00601005  RH  063%=      5-min Rain = 0
KRRS 070533Z 17008KT 06/M01 A3024 RMK A01 T00591005  RH  063%=      5-min Rain = 0
KRRS 070534Z 17007KT 06/M01 A3024 RMK A01 T00601005  RH  063%=      5-min Rain = 0
KRRS 070535Z 17007KT 06/M01 A3024 RMK A01 T00601005  RH  063%=      5-min Rain = 0
KRRS 070536Z 17007KT 06/M01 A3024 RMK A01 T00601005  RH  063%=      5-min Rain = 0
KRRS 070537Z 17007KT 06/M01 A3024 RMK A01 T00601005  RH  063%=      5-min Rain = 0
KRRS 070538Z 17007KT 06/M01 A3024 RMK A01 T00591006  RH  063%=      5-min Rain = 0
KRRS 070539Z 17007KT 06/M01 A3024 RMK A01 T00591006  RH  063%=      5-min Rain = 0
KRRS 070540Z 16007KT 06/M01 A3024 RMK A01 T00591005  RH  063%=      5-min Rain = 0
KRRS 070541Z 16008KT 06/M01 A3024 RMK A01 T00601005  RH  063%=      5-min Rain = 0
KRRS 070542Z 16007KT 06/M00 A3024 RMK A01 T00611004  RH  063%=      5-min Rain = 0
KRRS 070543Z 16007KT 06/M00 A3024 RMK A01 T00631003  RH  062%=      5-min Rain = 0
KRRS 070544Z 16007KT 07/M00 A3024 RMK A01 T00651003  RH  062%=      5-min Rain = 0
KRRS 070545Z 16007KT 07/M00 A3024 RMK A01 T00671003  RH  061%=      5-min Rain = 0
KRRS 070546Z 16007KT 07/M00 A3024 RMK A01 T00681003  RH  060%=      5-min Rain = 0
KRRS 070547Z 16007KT 07/M00 A3024 RMK A01 T00681003  RH  060%=      5-min Rain = 0
KRRS 070548Z 16007KT 07/M00 A3024 RMK A01 T00681003  RH  061%=      5-min Rain = 0
KRRS 070549Z 16008KT 07/M00 A3024 RMK A01 T00681003  RH  060%=      5-min Rain = 0
KRRS 070550Z 17007KT 07/M00 A3024 RMK A01 T00681003  RH  060%=      5-min Rain = 0
KRRS 070551Z 16007KT 07/M00 A3024 RMK A01 T00681003  RH  060%=      5-min Rain = 0
KRRS 070552Z 17007KT 07/M00 A3024 RMK A01 T00681003  RH  061%=      5-min Rain = 0
KRRS 070553Z 17007KT 07/M00 A3024 RMK A01 T00671003  RH  061%=      5-min Rain = 0
KRRS 070554Z 17007KT 07/M00 A3024 RMK A01 T00671003  RH  061%=      5-min Rain = 0
KRRS 070555Z 16007KT 07/M00 A3024 RMK A01 T00661003  RH  061%=      5-min Rain = 0
KRRS 070556Z 16007KT 07/M00 A3024 RMK A01 T00651003  RH  062%=      5-min Rain = 0
KRRS 070557Z 16007KT 07/M00 A3024 RMK A01 T00661003  RH  061%=      5-min Rain = 0
KRRS 070558Z 16007KT 07/M00 A3024 RMK A01 T00661003  RH  061%=      5-min Rain = 0
KRRS 070559Z 16007KT 07/M00 A3023 RMK A01 T00661003  RH  061%=      5-min Rain = 0

Page generated in 0.0658 seconds.